Time,TemperatureF,DewpointF,PressureIn,WindDirection,WindDirectionDegrees,WindSpeedMPH,WindSpeedGustMPH,Humidity,HourlyPrecipIn,Conditions,Clouds,dailyrainin,SoftwareType,DateUTC
2013-09-25 00:01:00,47.7,42.8,29.26,WNW,292,0.0,0.0,83,0.00,,---,0.00,VWS V13.01,2013-09-25 04:01:00,
2013-09-25 00:02:00,47.7,42.8,29.26,WNW,292,0.0,0.0,83,0.00,,---,0.00,VWS V13.01,2013-09-25 04:02:00,
2013-09-25 00:03:00,47.7,42.8,29.26,WNW,292,0.0,0.0,83,0.00,,---,0.00,VWS V13.01,2013-09-25 04:03:00,
2013-09-25 00:07:00,47.7,42.8,29.26,West,270,0.0,0.0,83,0.00,,---,0.00,VWS V13.01,2013-09-25 04:07:00,
2013-09-25 00:09:00,47.7,42.8,29.26,WNW,292,0.0,0.0,83,0.00,,---,0.00,VWS V13.01,2013-09-25 04:09:00,
2013-09-25 00:11:00,47.7,42.8,29.26,North,0,0.0,0.0,83,0.00,,---,0.00,VWS V13.01,2013-09-25 04:11:00,
2013-09-25 00:12:00,47.7,42.8,29.26,North,0,0.0,0.0,83,0.00,,---,0.00,VWS V13.01,2013-09-25 04:12:00,
2013-09-25 00:13:00,47.7,42.8,29.26,North,0,0.0,0.0,83,0.00,,---,0.00,VWS V13.01,2013-09-25 04:13:00,
2013-09-25 00:14:00,47.7,42.8,29.26,North,0,0.0,0.0,83,0.00,,---,0.00,VWS V13.01,2013-09-25 04:14:00,
2013-09-25 00:17:00,47.7,42.8,29.26,SW,225,0.0,0.0,83,0.00,,---,0.00,VWS V13.01,2013-09-25 04:17:00,
2013-09-25 00:18:00,47.7,42.8,29.26,SW,225,0.0,0.0,83,0.00,,---,0.00,VWS V13.01,2013-09-25 04:18:00,
2013-09-25 00:19:00,47.7,42.8,29.26,SW,225,0.0,0.0,83,0.00,,---,0.00,VWS V13.01,2013-09-25 04:19:00,
2013-09-25 00:20:00,47.7,42.8,29.26,SW,225,0.0,0.0,83,0.00,,---,0.00,VWS V13.01,2013-09-25 04:20:00,
2013-09-25 00:23:00,47.7,42.8,29.26,SE,135,0.0,0.0,83,0.00,,---,0.00,VWS V13.01,2013-09-25 04:23:00,
2013-09-25 00:24:00,47.7,42.8,29.26,East,90,0.0,0.0,83,0.00,,---,0.00,VWS V13.01,2013-09-25 04:24:00,
2013-09-25 00:26:00,47.5,42.6,29.26,East,90,0.0,0.0,83,0.00,,---,0.00,VWS V13.01,2013-09-25 04:26:00,
2013-09-25 00:27:00,47.5,42.6,29.26,East,90,0.0,0.0,83,0.00,,---,0.00,VWS V13.01,2013-09-25 04:27:00,
2013-09-25 00:28:00,47.5,42.6,29.26,East,90,0.0,0.0,83,0.00,,---,0.00,VWS V13.01,2013-09-25 04:28:00,
2013-09-25 00:32:00,47.5,42.6,29.26,East,90,0.0,0.0,83,0.00,,---,0.00,VWS V13.01,2013-09-25 04:32:00,
2013-09-25 00:34:00,47.5,42.6,29.26,East,90,0.0,0.0,83,0.00,,---,0.00,VWS V13.01,2013-09-25 04:34:00,
2013-09-25 00:37:00,47.5,42.6,29.26,East,90,0.0,0.0,83,0.00,,---,0.00,VWS V13.01,2013-09-25 04:37:00,
2013-09-25 00:39:00,47.5,42.6,29.26,East,90,0.0,0.0,83,0.00,,---,0.00,VWS V13.01,2013-09-25 04:39:00,
2013-09-25 00:40:00,47.5,42.6,29.26,East,90,0.0,0.0,83,0.00,,---,0.00,VWS V13.01,2013-09-25 04:40:00,
2013-09-25 00:44:00,48.2,43.3,29.26,East,90,0.0,0.0,83,0.00,,---,0.00,VWS V13.01,2013-09-25 04:44:00,
2013-09-25 00:46:00,48.2,43.3,29.26,East,90,0.0,0.0,83,0.00,,---,0.00,VWS V13.01,2013-09-25 04:46:00,
2013-09-25 00:47:00,48.2,43.3,29.26,East,90,0.0,0.0,83,0.00,,---,0.00,VWS V13.01,2013-09-25 04:47:00,
2013-09-25 00:48:00,48.2,43.3,29.26,East,90,0.0,0.0,83,0.00,,---,0.00,VWS V13.01,2013-09-25 04:48:00,
2013-09-25 00:51:00,48.0,43.1,29.26,East,90,0.0,0.0,83,0.00,,---,0.00,VWS V13.01,2013-09-25 04:51:00,
2013-09-25 00:52:00,48.0,43.1,29.26,East,90,0.0,0.0,83,0.00,,---,0.00,VWS V13.01,2013-09-25 04:52:00,
2013-09-25 00:57:00,48.0,43.1,29.26,SSE,158,0.0,0.0,83,0.00,,---,0.00,VWS V13.01,2013-09-25 04:57:00,
2013-09-25 00:58:00,48.0,43.1,29.26,SSE,158,0.0,0.0,83,0.00,,---,0.00,VWS V13.01,2013-09-25 04:58:00,
2013-09-25 00:59:00,48.0,43.1,29.26,SSE,158,0.0,0.0,83,0.00,,---,0.00,VWS V13.01,2013-09-25 04:59:00,
2013-09-25 01:02:00,48.0,43.1,29.26,South,180,0.0,0.0,83,0.00,,---,0.00,VWS V13.01,2013-09-25 05:02:00,
2013-09-25 01:04:00,48.0,43.1,29.26,South,180,0.0,0.0,83,0.00,,---,0.00,VWS V13.01,2013-09-25 05:04:00,
2013-09-25 01:05:00,48.0,43.1,29.26,South,180,0.0,0.0,83,0.00,,---,0.00,VWS V13.01,2013-09-25 05:05:00,
2013-09-25 01:06:00,48.0,43.1,29.26,South,180,0.0,0.0,83,0.00,,---,0.00,VWS V13.01,2013-09-25 05:06:00,
2013-09-25 01:09:00,48.0,43.1,29.26,South,180,0.0,0.0,83,0.00,,---,0.00,VWS V13.01,2013-09-25 05:09:00,
2013-09-25 01:10:00,48.0,43.1,29.26,South,180,0.0,0.0,83,0.00,,---,0.00,VWS V13.01,2013-09-25 05:10:00,
2013-09-25 01:11:00,48.0,43.1,29.26,South,180,0.0,0.0,83,0.00,,---,0.00,VWS V13.01,2013-09-25 05:11:00,
2013-09-25 01:15:00,48.0,43.1,29.26,South,180,0.0,0.0,83,0.00,,---,0.00,VWS V13.01,2013-09-25 05:15:00,
2013-09-25 01:16:00,47.3,42.4,29.26,South,180,0.0,0.0,83,0.00,,---,0.00,VWS V13.01,2013-09-25 05:16:00,
2013-09-25 01:18:00,47.3,42.4,29.26,South,180,0.0,0.0,83,0.00,,---,0.00,VWS V13.01,2013-09-25 05:18:00,
2013-09-25 01:19:00,47.3,42.4,29.26,South,180,0.0,0.0,83,0.00,,---,0.00,VWS V13.01,2013-09-25 05:19:00,
2013-09-25 01:22:00,47.3,42.4,29.26,South,180,0.0,0.0,83,0.00,,---,0.00,VWS V13.01,2013-09-25 05:22:00,
2013-09-25 01:23:00,47.3,42.4,29.26,South,180,0.0,0.0,83,0.00,,---,0.00,VWS V13.01,2013-09-25 05:23:00,
2013-09-25 01:24:00,47.3,42.4,29.26,South,180,0.0,0.0,83,0.00,,---,0.00,VWS V13.01,2013-09-25 05:24:00,
2013-09-25 01:28:00,47.3,42.4,29.26,South,180,0.0,0.0,83,0.00,,---,0.00,VWS V13.01,2013-09-25 05:28:00,
2013-09-25 01:29:00,47.3,42.4,29.26,South,180,0.0,0.0,83,0.00,,---,0.00,VWS V13.01,2013-09-25 05:29:00,
2013-09-25 01:31:00,47.3,42.4,29.26,South,180,0.0,0.0,83,0.00,,---,0.00,VWS V13.01,2013-09-25 05:31:00,
2013-09-25 01:34:00,47.3,42.4,29.26,South,180,0.0,0.0,83,0.00,,---,0.00,VWS V13.01,2013-09-25 05:34:00,
2013-09-25 01:38:00,47.3,42.4,29.26,South,180,0.0,0.0,83,0.00,,---,0.00,VWS V13.01,2013-09-25 05:38:00,
2013-09-25 01:39:00,47.3,42.4,29.26,WSW,248,0.0,0.0,83,0.00,,---,0.00,VWS V13.01,2013-09-25 05:39:00,
2013-09-25 01:42:00,47.3,42.4,29.26,WSW,248,0.0,0.0,83,0.00,,---,0.00,VWS V13.01,2013-09-25 05:42:00,
2013-09-25 01:44:00,47.3,42.4,29.26,WSW,248,0.0,0.0,83,0.00,,---,0.00,VWS V13.01,2013-09-25 05:44:00,
2013-09-25 01:45:00,47.3,42.4,29.26,WSW,248,0.0,0.0,83,0.00,,---,0.00,VWS V13.01,2013-09-25 05:45:00,
2013-09-25 01:47:00,46.9,42.0,29.26,WSW,248,0.0,0.0,83,0.00,,---,0.00,VWS V13.01,2013-09-25 05:47:00,
2013-09-25 01:48:00,46.9,42.0,29.26,WSW,248,0.0,0.0,83,0.00,,---,0.00,VWS V13.01,2013-09-25 05:48:00,
2013-09-25 01:50:00,46.9,42.0,29.26,WSW,248,0.0,0.0,83,0.00,,---,0.00,VWS V13.01,2013-09-25 05:50:00,
2013-09-25 01:52:00,46.9,42.0,29.26,WSW,248,0.0,0.0,83,0.00,,---,0.00,VWS V13.01,2013-09-25 05:52:00,
2013-09-25 01:53:00,46.9,42.0,29.26,WSW,248,0.0,0.0,83,0.00,,---,0.00,VWS V13.01,2013-09-25 05:53:00,
2013-09-25 01:54:00,46.9,42.0,29.26,WSW,248,0.0,0.0,83,0.00,,---,0.00,VWS V13.01,2013-09-25 05:54:00,
2013-09-25 01:56:00,46.9,42.0,29.26,WSW,248,0.0,0.0,83,0.00,,---,0.00,VWS V13.01,2013-09-25 05:56:00,
2013-09-25 01:58:00,46.9,42.0,29.26,WSW,248,0.0,0.0,83,0.00,,---,0.00,VWS V13.01,2013-09-25 05:58:00,
2013-09-25 02:02:00,46.9,42.0,29.26,WSW,248,0.0,0.0,83,0.00,,---,0.00,VWS V13.01,2013-09-25 06:02:00,
2013-09-25 02:03:00,46.9,42.0,29.26,WSW,248,0.0,0.0,83,0.00,,---,0.00,VWS V13.01,2013-09-25 06:03:00,
2013-09-25 02:04:00,46.9,42.0,29.26,WSW,248,0.0,0.0,83,0.00,,---,0.00,VWS V13.01,2013-09-25 06:04:00,
2013-09-25 02:08:00,46.8,42.2,29.26,WSW,248,0.0,0.0,84,0.00,,---,0.00,VWS V13.01,2013-09-25 06:08:00,
2013-09-25 02:10:00,46.8,42.2,29.26,SSW,202,0.0,0.0,84,0.00,,---,0.00,VWS V13.01,2013-09-25 06:10:00,
2013-09-25 02:11:00,46.6,41.7,29.26,SSW,202,0.0,0.0,83,0.00,,---,0.00,VWS V13.01,2013-09-25 06:11:00,
2013-09-25 02:14:00,46.6,41.7,29.26,SSW,202,0.0,0.0,83,0.00,,---,0.00,VWS V13.01,2013-09-25 06:14:00,
2013-09-25 02:15:00,46.6,41.7,29.26,SSW,202,0.0,0.0,83,0.00,,---,0.00,VWS V13.01,2013-09-25 06:15:00,
2013-09-25 02:20:00,46.6,41.7,29.26,South,180,0.0,0.0,83,0.00,,---,0.00,VWS V13.01,2013-09-25 06:20:00,
2013-09-25 02:22:00,46.6,41.7,29.26,South,180,0.0,0.0,83,0.00,,---,0.00,VWS V13.01,2013-09-25 06:22:00,
2013-09-25 02:25:00,46.6,41.7,29.26,SSE,158,0.0,0.0,83,0.00,,---,0.00,VWS V13.01,2013-09-25 06:25:00,
2013-09-25 02:26:00,46.6,41.7,29.26,SSE,158,0.0,0.0,83,0.00,,---,0.00,VWS V13.01,2013-09-25 06:26:00,
2013-09-25 02:29:00,46.6,41.7,29.26,South,180,0.0,0.0,83,0.00,,---,0.00,VWS V13.01,2013-09-25 06:29:00,
2013-09-25 02:32:00,46.4,41.8,29.26,SW,225,0.0,0.0,84,0.00,,---,0.00,VWS V13.01,2013-09-25 06:32:00,
2013-09-25 02:34:00,46.4,41.8,29.26,SW,225,0.0,0.0,84,0.00,,---,0.00,VWS V13.01,2013-09-25 06:34:00,
2013-09-25 02:35:00,46.4,41.8,29.26,SW,225,0.0,0.0,84,0.00,,---,0.00,VWS V13.01,2013-09-25 06:35:00,
2013-09-25 02:36:00,46.4,41.8,29.26,SW,225,0.0,0.0,84,0.00,,---,0.00,VWS V13.01,2013-09-25 06:36:00,
2013-09-25 02:42:00,46.4,41.8,29.26,SW,225,0.0,0.0,84,0.00,,---,0.00,VWS V13.01,2013-09-25 06:42:00,
2013-09-25 02:43:00,46.4,41.8,29.26,SW,225,0.0,0.0,84,0.00,,---,0.00,VWS V13.01,2013-09-25 06:43:00,
2013-09-25 02:44:00,46.4,41.8,29.26,West,270,0.0,0.0,84,0.00,,---,0.00,VWS V13.01,2013-09-25 06:44:00,
2013-09-25 02:47:00,46.4,41.8,29.26,ENE,68,0.0,0.0,84,0.00,,---,0.00,VWS V13.01,2013-09-25 06:47:00,
2013-09-25 02:48:00,46.0,41.5,29.26,ENE,68,0.0,0.0,84,0.00,,---,0.00,VWS V13.01,2013-09-25 06:48:00,
2013-09-25 02:49:00,46.0,41.5,29.26,ENE,68,0.0,0.0,84,0.00,,---,0.00,VWS V13.01,2013-09-25 06:49:00,
2013-09-25 02:50:00,46.0,41.5,29.26,ENE,68,0.0,0.0,84,0.00,,---,0.00,VWS V13.01,2013-09-25 06:50:00,
2013-09-25 02:53:00,46.0,41.5,29.26,ENE,68,0.0,0.0,84,0.00,,---,0.00,VWS V13.01,2013-09-25 06:53:00,
2013-09-25 02:54:00,46.0,41.5,29.26,ENE,68,0.0,0.0,84,0.00,,---,0.00,VWS V13.01,2013-09-25 06:54:00,
2013-09-25 02:56:00,46.0,41.5,29.26,WSW,248,0.0,0.0,84,0.00,,---,0.00,VWS V13.01,2013-09-25 06:56:00,
2013-09-25 02:59:00,46.0,41.5,29.26,WSW,248,0.0,0.0,84,0.00,,---,0.00,VWS V13.01,2013-09-25 06:59:00,
2013-09-25 03:00:00,46.0,41.5,29.26,WSW,248,0.0,0.0,84,0.00,,---,0.00,VWS V13.01,2013-09-25 07:00:00,
2013-09-25 03:02:00,46.0,41.5,29.26,WSW,248,0.0,0.0,84,0.00,,---,0.00,VWS V13.01,2013-09-25 07:02:00,
2013-09-25 03:04:00,46.0,41.5,29.26,WSW,248,0.0,0.0,84,0.00,,---,0.00,VWS V13.01,2013-09-25 07:04:00,
2013-09-25 03:06:00,46.0,41.5,29.26,WSW,248,0.0,0.0,84,0.00,,---,0.00,VWS V13.01,2013-09-25 07:06:00,
2013-09-25 03:07:00,46.0,41.5,29.26,NE,45,0.0,0.0,84,0.00,,---,0.00,VWS V13.01,2013-09-25 07:07:00,
2013-09-25 03:08:00,46.0,41.5,29.26,NE,45,0.0,0.0,84,0.00,,---,0.00,VWS V13.01,2013-09-25 07:08:00,
2013-09-25 03:12:00,46.0,41.5,29.26,East,90,0.0,0.0,84,0.00,,---,0.00,VWS V13.01,2013-09-25 07:12:00,
2013-09-25 03:13:00,46.0,41.5,29.26,East,90,0.0,0.0,84,0.00,,---,0.00,VWS V13.01,2013-09-25 07:13:00,
2013-09-25 03:14:00,45.7,41.1,29.26,East,90,0.0,0.0,84,0.00,,---,0.00,VWS V13.01,2013-09-25 07:14:00,
2013-09-25 03:15:00,45.7,41.1,29.26,East,90,0.0,0.0,84,0.00,,---,0.00,VWS V13.01,2013-09-25 07:15:00,
2013-09-25 03:18:00,45.7,41.1,29.26,East,90,0.0,0.0,84,0.00,,---,0.00,VWS V13.01,2013-09-25 07:18:00,
2013-09-25 03:20:00,45.7,41.1,29.26,East,90,0.0,0.0,84,0.00,,---,0.00,VWS V13.01,2013-09-25 07:20:00,
2013-09-25 03:22:00,45.7,41.1,29.26,East,90,0.0,0.0,84,0.00,,---,0.00,VWS V13.01,2013-09-25 07:22:00,
2013-09-25 03:24:00,45.7,41.1,29.26,South,180,0.0,0.0,84,0.00,,---,0.00,VWS V13.01,2013-09-25 07:24:00,
2013-09-25 03:25:00,45.7,41.1,29.26,South,180,0.0,0.0,84,0.00,,---,0.00,VWS V13.01,2013-09-25 07:25:00,
2013-09-25 03:26:00,45.7,41.1,29.26,South,180,0.0,0.0,84,0.00,,---,0.00,VWS V13.01,2013-09-25 07:26:00,
2013-09-25 03:27:00,45.7,41.1,29.26,South,180,0.0,0.0,84,0.00,,---,0.00,VWS V13.01,2013-09-25 07:27:00,
2013-09-25 03:31:00,45.7,41.1,29.26,ESE,112,0.0,0.0,84,0.00,,---,0.00,VWS V13.01,2013-09-25 07:31:00,
2013-09-25 03:32:00,45.7,41.1,29.26,ESE,112,0.0,0.0,84,0.00,,---,0.00,VWS V13.01,2013-09-25 07:32:00,
2013-09-25 03:33:00,45.7,41.1,29.26,ESE,112,0.0,0.0,84,0.00,,---,0.00,VWS V13.01,2013-09-25 07:33:00,
2013-09-25 03:37:00,46.2,42.0,29.26,ESE,112,0.0,0.0,85,0.00,,---,0.00,VWS V13.01,2013-09-25 07:37:00,
2013-09-25 03:38:00,46.2,42.0,29.26,ESE,112,0.0,0.0,85,0.00,,---,0.00,VWS V13.01,2013-09-25 07:38:00,
2013-09-25 03:39:00,46.2,42.0,29.26,ESE,112,0.0,0.0,85,0.00,,---,0.00,VWS V13.01,2013-09-25 07:39:00,
2013-09-25 03:43:00,46.2,42.0,29.26,SSW,202,0.0,0.0,85,0.00,,---,0.00,VWS V13.01,2013-09-25 07:43:00,
2013-09-25 03:44:00,46.2,42.0,29.26,SSW,202,0.0,0.0,85,0.00,,---,0.00,VWS V13.01,2013-09-25 07:44:00,
2013-09-25 03:45:00,46.2,42.0,29.26,SSW,202,0.0,0.0,85,0.00,,---,0.00,VWS V13.01,2013-09-25 07:45:00,
2013-09-25 03:49:00,46.2,42.0,29.23,SSW,202,0.0,0.0,85,0.00,,---,0.00,VWS V13.01,2013-09-25 07:49:00,
2013-09-25 03:51:00,46.2,42.0,29.23,SSW,202,0.0,0.0,85,0.00,,---,0.00,VWS V13.01,2013-09-25 07:51:00,
2013-09-25 03:55:00,46.2,42.0,29.23,SSW,202,0.0,0.0,85,0.00,,---,0.00,VWS V13.01,2013-09-25 07:55:00,
2013-09-25 03:56:00,46.2,42.0,29.23,SSW,202,0.0,0.0,85,0.00,,---,0.00,VWS V13.01,2013-09-25 07:56:00,
2013-09-25 03:57:00,46.0,41.8,29.23,SSW,202,0.0,0.0,85,0.00,,---,0.00,VWS V13.01,2013-09-25 07:57:00,
2013-09-25 03:59:00,46.0,41.8,29.23,SSW,202,0.0,0.0,85,0.00,,---,0.00,VWS V13.01,2013-09-25 07:59:00,
2013-09-25 04:00:00,46.0,41.8,29.23,SSW,202,0.0,0.0,85,0.00,,---,0.00,VWS V13.01,2013-09-25 08:00:00,
2013-09-25 04:02:00,46.0,41.8,29.23,SSW,202,0.0,0.0,85,0.00,,---,0.00,VWS V13.01,2013-09-25 08:02:00,
2013-09-25 04:03:00,46.0,41.8,29.23,SSW,202,0.0,0.0,85,0.00,,---,0.00,VWS V13.01,2013-09-25 08:03:00,
2013-09-25 04:05:00,46.0,41.8,29.23,SSW,202,0.0,0.0,85,0.00,,---,0.00,VWS V13.01,2013-09-25 08:05:00,
2013-09-25 04:08:00,46.0,41.8,29.23,East,90,0.0,0.0,85,0.00,,---,0.00,VWS V13.01,2013-09-25 08:08:00,
2013-09-25 04:09:00,46.0,41.8,29.23,East,90,0.0,0.0,85,0.00,,---,0.00,VWS V13.01,2013-09-25 08:09:00,
2013-09-25 04:10:00,46.0,41.8,29.23,East,90,0.0,0.0,85,0.00,,---,0.00,VWS V13.01,2013-09-25 08:10:00,
2013-09-25 04:13:00,46.0,41.8,29.23,East,90,0.0,0.0,85,0.00,,---,0.00,VWS V13.01,2013-09-25 08:13:00,
2013-09-25 04:15:00,46.0,41.8,29.23,East,90,0.0,0.0,85,0.00,,---,0.00,VWS V13.01,2013-09-25 08:15:00,
2013-09-25 04:17:00,46.0,41.8,29.23,East,90,0.0,0.0,85,0.00,,---,0.00,VWS V13.01,2013-09-25 08:17:00,
2013-09-25 04:19:00,46.0,41.8,29.23,East,90,0.0,0.0,85,0.00,,---,0.00,VWS V13.01,2013-09-25 08:19:00,
2013-09-25 04:20:00,45.3,41.1,29.23,East,90,0.0,0.0,85,0.00,,---,0.00,VWS V13.01,2013-09-25 08:20:00,
2013-09-25 04:21:00,45.3,41.1,29.23,East,90,0.0,0.0,85,0.00,,---,0.00,VWS V13.01,2013-09-25 08:21:00,
2013-09-25 04:23:00,45.3,41.1,29.23,East,90,0.0,0.0,85,0.00,,---,0.00,VWS V13.01,2013-09-25 08:23:00,
2013-09-25 04:27:00,45.3,41.1,29.23,East,90,0.0,0.0,85,0.00,,---,0.00,VWS V13.01,2013-09-25 08:27:00,
2013-09-25 04:29:00,45.3,41.1,29.23,East,90,0.0,0.0,85,0.00,,---,0.00,VWS V13.01,2013-09-25 08:29:00,
2013-09-25 04:31:00,45.3,41.1,29.23,East,90,0.0,0.0,85,0.00,,---,0.00,VWS V13.01,2013-09-25 08:31:00,
2013-09-25 04:32:00,45.3,41.1,29.23,East,90,0.0,0.0,85,0.00,,---,0.00,VWS V13.01,2013-09-25 08:32:00,
2013-09-25 04:34:00,45.3,41.1,29.23,East,90,0.0,0.0,85,0.00,,---,0.00,VWS V13.01,2013-09-25 08:34:00,
2013-09-25 04:35:00,45.3,41.1,29.23,East,90,0.0,0.0,85,0.00,,---,0.00,VWS V13.01,2013-09-25 08:35:00,
2013-09-25 04:36:00,45.3,41.1,29.23,East,90,0.0,0.0,85,0.00,,---,0.00,VWS V13.01,2013-09-25 08:36:00,
2013-09-25 04:39:00,45.3,41.1,29.23,SW,225,0.0,0.0,85,0.00,,---,0.00,VWS V13.01,2013-09-25 08:39:00,
2013-09-25 04:40:00,45.3,41.1,29.23,WSW,248,0.0,0.0,85,0.00,,---,0.00,VWS V13.01,2013-09-25 08:40:00,
2013-09-25 04:42:00,45.3,41.1,29.23,WSW,248,0.0,0.0,85,0.00,,---,0.00,VWS V13.01,2013-09-25 08:42:00,
2013-09-25 04:43:00,45.3,41.1,29.23,WSW,248,0.0,0.0,85,0.00,,---,0.00,VWS V13.01,2013-09-25 08:43:00,
2013-09-25 04:46:00,45.3,41.1,29.23,East,90,0.0,0.0,85,0.00,,---,0.00,VWS V13.01,2013-09-25 08:46:00,
2013-09-25 04:47:00,45.3,41.1,29.23,East,90,0.0,0.0,85,0.00,,---,0.00,VWS V13.01,2013-09-25 08:47:00,
2013-09-25 04:48:00,45.3,41.1,29.23,East,90,0.0,0.0,85,0.00,,---,0.00,VWS V13.01,2013-09-25 08:48:00,
2013-09-25 04:49:00,45.3,41.1,29.23,East,90,0.0,0.0,85,0.00,,---,0.00,VWS V13.01,2013-09-25 08:49:00,
2013-09-25 04:52:00,44.8,40.5,29.23,East,90,0.0,0.0,85,0.00,,---,0.00,VWS V13.01,2013-09-25 08:52:00,
2013-09-25 04:53:00,44.8,40.5,29.23,East,90,0.0,0.0,85,0.00,,---,0.00,VWS V13.01,2013-09-25 08:53:00,
2013-09-25 04:54:00,44.8,40.5,29.23,East,90,0.0,0.0,85,0.00,,---,0.00,VWS V13.01,2013-09-25 08:54:00,
2013-09-25 04:55:00,44.8,40.5,29.23,WSW,248,0.0,0.0,85,0.00,,---,0.00,VWS V13.01,2013-09-25 08:55:00,
2013-09-25 04:59:00,44.8,40.5,29.23,SW,225,0.0,0.0,85,0.00,,---,0.00,VWS V13.01,2013-09-25 08:59:00,
2013-09-25 05:01:00,44.8,40.5,29.23,SSW,202,0.0,0.0,85,0.00,,---,0.00,VWS V13.01,2013-09-25 09:01:00,
2013-09-25 05:03:00,44.8,40.5,29.23,SSW,202,0.0,0.0,85,0.00,,---,0.00,VWS V13.01,2013-09-25 09:03:00,
2013-09-25 05:04:00,44.8,40.5,29.23,South,180,0.0,0.0,85,0.00,,---,0.00,VWS V13.01,2013-09-25 09:04:00,
2013-09-25 05:05:00,44.8,40.5,29.23,South,180,0.0,0.0,85,0.00,,---,0.00,VWS V13.01,2013-09-25 09:05:00,
2013-09-25 05:08:00,44.8,40.5,29.23,South,180,0.0,0.0,85,0.00,,---,0.00,VWS V13.01,2013-09-25 09:08:00,
2013-09-25 05:09:00,44.8,40.5,29.23,South,180,0.0,0.0,85,0.00,,---,0.00,VWS V13.01,2013-09-25 09:09:00,
2013-09-25 05:12:00,44.8,40.5,29.23,South,180,0.0,0.0,85,0.00,,---,0.00,VWS V13.01,2013-09-25 09:12:00,
2013-09-25 05:13:00,44.6,40.4,29.23,South,180,0.0,0.0,85,0.00,,---,0.00,VWS V13.01,2013-09-25 09:13:00,
2013-09-25 05:14:00,44.6,40.4,29.23,South,180,0.0,0.0,85,0.00,,---,0.00,VWS V13.01,2013-09-25 09:14:00,
2013-09-25 05:15:00,44.6,40.4,29.23,South,180,0.0,0.0,85,0.00,,---,0.00,VWS V13.01,2013-09-25 09:15:00,
2013-09-25 05:19:00,44.6,40.4,29.23,South,180,0.0,0.0,85,0.00,,---,0.00,VWS V13.01,2013-09-25 09:19:00,
2013-09-25 05:20:00,44.6,40.4,29.23,South,180,0.0,0.0,85,0.00,,---,0.00,VWS V13.01,2013-09-25 09:20:00,
2013-09-25 05:21:00,44.6,40.4,29.23,South,180,0.0,0.0,85,0.00,,---,0.00,VWS V13.01,2013-09-25 09:21:00,
2013-09-25 05:22:00,44.6,40.4,29.23,South,180,0.0,0.0,85,0.00,,---,0.00,VWS V13.01,2013-09-25 09:22:00,
2013-09-25 05:25:00,44.6,40.4,29.23,South,180,0.0,0.0,85,0.00,,---,0.00,VWS V13.01,2013-09-25 09:25:00,
2013-09-25 05:27:00,44.6,40.4,29.23,South,180,0.0,0.0,85,0.00,,---,0.00,VWS V13.01,2013-09-25 09:27:00,
2013-09-25 05:28:00,44.6,40.4,29.23,South,180,0.0,0.0,85,0.00,,---,0.00,VWS V13.01,2013-09-25 09:28:00,
2013-09-25 05:29:00,44.6,40.4,29.23,South,180,0.0,0.0,85,0.00,,---,0.00,VWS V13.01,2013-09-25 09:29:00,
2013-09-25 05:30:00,44.6,40.4,29.23,SSE,158,0.0,0.0,85,0.00,,---,0.00,VWS V13.01,2013-09-25 09:30:00,
2013-09-25 05:31:00,44.6,40.4,29.23,SSE,158,0.0,0.0,85,0.00,,---,0.00,VWS V13.01,2013-09-25 09:31:00,
2013-09-25 05:35:00,44.6,40.4,29.23,SSE,158,0.0,0.0,85,0.00,,---,0.00,VWS V13.01,2013-09-25 09:35:00,
2013-09-25 05:36:00,44.6,40.4,29.23,SSE,158,0.0,0.0,85,0.00,,---,0.00,VWS V13.01,2013-09-25 09:36:00,
2013-09-25 05:37:00,44.6,40.4,29.23,SSE,158,0.0,0.0,85,0.00,,---,0.00,VWS V13.01,2013-09-25 09:37:00,
2013-09-25 05:39:00,44.6,40.4,29.23,SW,225,0.0,0.0,85,0.00,,---,0.00,VWS V13.01,2013-09-25 09:39:00,
2013-09-25 05:42:00,44.6,40.4,29.23,NNW,338,0.0,0.0,85,0.00,,---,0.00,VWS V13.01,2013-09-25 09:42:00,
2013-09-25 05:43:00,44.1,39.8,29.23,NNW,338,0.0,0.0,85,0.00,,---,0.00,VWS V13.01,2013-09-25 09:43:00,
2013-09-25 05:46:00,44.1,39.8,29.23,WSW,248,0.0,0.0,85,0.00,,---,0.00,VWS V13.01,2013-09-25 09:46:00,
2013-09-25 05:47:00,44.1,39.8,29.23,WSW,248,0.0,0.0,85,0.00,,---,0.00,VWS V13.01,2013-09-25 09:47:00,
2013-09-25 05:51:00,44.1,39.8,29.23,WSW,248,0.0,0.0,85,0.00,,---,0.00,VWS V13.01,2013-09-25 09:51:00,
2013-09-25 05:53:00,44.1,39.8,29.23,WSW,248,0.0,0.0,85,0.00,,---,0.00,VWS V13.01,2013-09-25 09:53:00,
2013-09-25 05:57:00,44.1,39.8,29.23,WSW,248,0.0,0.0,85,0.00,,---,0.00,VWS V13.01,2013-09-25 09:57:00,
2013-09-25 05:59:00,44.1,39.8,29.23,WSW,248,0.0,0.0,85,0.00,,---,0.00,VWS V13.01,2013-09-25 09:59:00,
2013-09-25 06:01:00,44.1,39.8,29.26,WSW,248,0.0,0.0,85,0.00,,---,0.00,VWS V13.01,2013-09-25 10:01:00,
2013-09-25 06:04:00,44.1,39.8,29.26,WSW,248,0.0,0.0,85,0.00,,---,0.00,VWS V13.01,2013-09-25 10:04:00,
2013-09-25 06:05:00,44.1,39.8,29.26,WSW,248,0.0,0.0,85,0.00,,---,0.00,VWS V13.01,2013-09-25 10:05:00,
2013-09-25 06:09:00,43.7,39.5,29.26,WSW,248,0.0,0.0,85,0.00,,---,0.00,VWS V13.01,2013-09-25 10:09:00,
2013-09-25 06:10:00,43.7,39.5,29.26,WSW,248,0.0,0.0,85,0.00,,---,0.00,VWS V13.01,2013-09-25 10:10:00,
2013-09-25 06:11:00,43.7,39.5,29.26,WSW,248,0.0,0.0,85,0.00,,---,0.00,VWS V13.01,2013-09-25 10:11:00,
2013-09-25 06:13:00,43.7,39.5,29.26,WSW,248,0.0,0.0,85,0.00,,---,0.00,VWS V13.01,2013-09-25 10:13:00,
2013-09-25 06:15:00,43.7,39.8,29.26,WSW,248,0.0,0.0,86,0.00,,---,0.00,VWS V13.01,2013-09-25 10:15:00,
2013-09-25 06:17:00,43.7,39.8,29.26,WSW,248,0.0,0.0,86,0.00,,---,0.00,VWS V13.01,2013-09-25 10:17:00,
2013-09-25 06:19:00,43.7,39.8,29.26,WSW,248,0.0,0.0,86,0.00,,---,0.00,VWS V13.01,2013-09-25 10:19:00,
2013-09-25 06:23:00,43.7,39.8,29.26,WSW,248,0.0,0.0,86,0.00,,---,0.00,VWS V13.01,2013-09-25 10:23:00,
2013-09-25 06:25:00,43.7,39.8,29.26,WSW,248,0.0,0.0,86,0.00,,---,0.00,VWS V13.01,2013-09-25 10:25:00,
2013-09-25 06:26:00,43.7,39.8,29.26,WSW,248,0.0,0.0,86,0.00,,---,0.00,VWS V13.01,2013-09-25 10:26:00,
2013-09-25 06:29:00,43.7,39.8,29.26,West,270,0.0,0.0,86,0.00,,---,0.00,VWS V13.01,2013-09-25 10:29:00,
2013-09-25 06:30:00,43.7,39.8,29.26,West,270,0.0,0.0,86,0.00,,---,0.00,VWS V13.01,2013-09-25 10:30:00,
2013-09-25 06:31:00,43.7,39.8,29.26,West,270,0.0,0.0,86,0.00,,---,0.00,VWS V13.01,2013-09-25 10:31:00,
2013-09-25 06:33:00,43.7,39.8,29.26,West,270,0.0,0.0,86,0.00,,---,0.00,VWS V13.01,2013-09-25 10:33:00,
2013-09-25 06:35:00,43.9,40.0,29.26,West,270,0.0,0.0,86,0.00,,---,0.00,VWS V13.01,2013-09-25 10:35:00,
2013-09-25 06:36:00,44.1,40.2,29.26,West,270,0.0,0.0,86,0.00,,---,0.00,VWS V13.01,2013-09-25 10:36:00,
2013-09-25 06:38:00,44.1,40.2,29.26,West,270,0.0,0.0,86,0.00,,---,0.00,VWS V13.01,2013-09-25 10:38:00,
2013-09-25 06:39:00,44.1,40.2,29.26,West,270,0.0,0.0,86,0.00,,---,0.00,VWS V13.01,2013-09-25 10:39:00,
2013-09-25 06:41:00,44.1,40.2,29.26,West,270,0.0,0.0,86,0.00,,---,0.00,VWS V13.01,2013-09-25 10:41:00,
2013-09-25 06:43:00,44.1,40.2,29.26,West,270,0.0,0.0,86,0.00,,---,0.00,VWS V13.01,2013-09-25 10:43:00,
2013-09-25 06:45:00,44.1,40.2,29.26,West,270,0.0,0.0,86,0.00,,---,0.00,VWS V13.01,2013-09-25 10:45:00,
2013-09-25 06:47:00,44.1,40.2,29.26,West,270,0.0,0.0,86,0.00,,---,0.00,VWS V13.01,2013-09-25 10:47:00,
2013-09-25 06:51:00,44.1,40.2,29.26,WNW,292,0.0,0.0,86,0.00,,---,0.00,VWS V13.01,2013-09-25 10:51:00,
2013-09-25 06:52:00,44.1,40.2,29.26,NW,315,0.0,0.0,86,0.00,,---,0.00,VWS V13.01,2013-09-25 10:52:00,
2013-09-25 06:55:00,44.1,40.2,29.26,East,90,0.0,0.0,86,0.00,,---,0.00,VWS V13.01,2013-09-25 10:55:00,
2013-09-25 06:58:00,44.1,40.2,29.26,East,90,0.0,0.0,86,0.00,,---,0.00,VWS V13.01,2013-09-25 10:58:00,
2013-09-25 06:59:00,43.9,40.3,29.26,East,90,0.0,0.0,87,0.00,,---,0.00,VWS V13.01,2013-09-25 10:59:00,
2013-09-25 07:01:00,43.9,40.3,29.26,East,90,0.0,0.0,87,0.00,,---,0.00,VWS V13.01,2013-09-25 11:01:00,
2013-09-25 07:03:00,43.9,40.3,29.26,ENE,68,0.0,0.0,87,0.00,,---,0.00,VWS V13.01,2013-09-25 11:03:00,
2013-09-25 07:04:00,43.9,40.0,29.26,East,90,0.0,0.0,86,0.00,,---,0.00,VWS V13.01,2013-09-25 11:04:00,
2013-09-25 07:05:00,43.9,40.0,29.26,East,90,0.0,0.0,86,0.00,,---,0.00,VWS V13.01,2013-09-25 11:05:00,
2013-09-25 07:07:00,43.9,40.0,29.26,East,90,0.0,0.0,86,0.00,,---,0.00,VWS V13.01,2013-09-25 11:07:00,
2013-09-25 07:10:00,43.9,40.0,29.26,East,90,0.0,0.0,86,0.00,,---,0.00,VWS V13.01,2013-09-25 11:10:00,
2013-09-25 07:11:00,43.9,40.0,29.26,East,90,0.0,0.0,86,0.00,,---,0.00,VWS V13.01,2013-09-25 11:11:00,
2013-09-25 07:12:00,43.9,40.0,29.26,East,90,0.0,0.0,86,0.00,,---,0.00,VWS V13.01,2013-09-25 11:12:00,
2013-09-25 07:13:00,43.9,40.0,29.26,East,90,0.0,0.0,86,0.00,,---,0.00,VWS V13.01,2013-09-25 11:13:00,
2013-09-25 07:17:00,43.9,40.0,29.26,East,90,0.0,0.0,86,0.00,,---,0.00,VWS V13.01,2013-09-25 11:17:00,
2013-09-25 07:19:00,43.9,40.0,29.26,East,90,0.0,0.0,86,0.00,,---,0.00,VWS V13.01,2013-09-25 11:19:00,
2013-09-25 07:20:00,43.9,40.0,29.26,East,90,0.0,0.0,86,0.00,,---,0.00,VWS V13.01,2013-09-25 11:20:00,
2013-09-25 07:21:00,43.9,40.0,29.26,East,90,0.0,0.0,86,0.00,,---,0.00,VWS V13.01,2013-09-25 11:21:00,
2013-09-25 07:23:00,43.9,40.0,29.26,East,90,0.0,0.0,86,0.00,,---,0.00,VWS V13.01,2013-09-25 11:23:00,
2013-09-25 07:25:00,43.9,40.0,29.26,East,90,0.0,0.0,86,0.00,,---,0.00,VWS V13.01,2013-09-25 11:25:00,
2013-09-25 07:26:00,43.9,40.0,29.26,East,90,0.0,0.0,86,0.00,,---,0.00,VWS V13.01,2013-09-25 11:26:00,
2013-09-25 07:28:00,44.4,40.8,29.26,East,90,0.0,0.0,87,0.00,,---,0.00,VWS V13.01,2013-09-25 11:28:00,
2013-09-25 07:29:00,44.4,40.8,29.26,East,90,0.0,0.0,87,0.00,,---,0.00,VWS V13.01,2013-09-25 11:29:00,
2013-09-25 07:30:00,44.4,40.8,29.26,East,90,0.0,0.0,87,0.00,,---,0.00,VWS V13.01,2013-09-25 11:30:00,
2013-09-25 07:31:00,44.4,40.8,29.26,East,90,0.0,0.0,87,0.00,,---,0.00,VWS V13.01,2013-09-25 11:31:00,
2013-09-25 07:33:00,44.4,40.8,29.26,East,90,0.0,0.0,87,0.00,,---,0.00,VWS V13.01,2013-09-25 11:33:00,
2013-09-25 07:35:00,44.4,40.8,29.26,East,90,0.0,0.0,87,0.00,,---,0.00,VWS V13.01,2013-09-25 11:35:00,
2013-09-25 07:36:00,44.4,40.8,29.26,East,90,0.0,0.0,87,0.00,,---,0.00,VWS V13.01,2013-09-25 11:36:00,
2013-09-25 07:39:00,45.0,41.3,29.26,East,90,0.0,0.0,87,0.00,,---,0.00,VWS V13.01,2013-09-25 11:39:00,
2013-09-25 07:42:00,45.0,41.3,29.26,East,90,0.0,0.0,87,0.00,,---,0.00,VWS V13.01,2013-09-25 11:42:00,
2013-09-25 07:43:00,45.0,41.3,29.26,East,90,0.0,0.0,87,0.00,,---,0.00,VWS V13.01,2013-09-25 11:43:00,
2013-09-25 07:47:00,45.0,41.3,29.26,East,90,0.0,0.0,87,0.00,,---,0.00,VWS V13.01,2013-09-25 11:47:00,
2013-09-25 07:48:00,45.0,41.3,29.26,East,90,0.0,0.0,87,0.00,,---,0.00,VWS V13.01,2013-09-25 11:48:00,
2013-09-25 07:49:00,45.0,41.3,29.26,East,90,0.0,0.0,87,0.00,,---,0.00,VWS V13.01,2013-09-25 11:49:00,
2013-09-25 07:50:00,45.0,41.3,29.26,East,90,0.0,0.0,87,0.00,,---,0.00,VWS V13.01,2013-09-25 11:50:00,
2013-09-25 07:53:00,45.7,42.0,29.26,East,90,0.0,0.0,87,0.00,,---,0.00,VWS V13.01,2013-09-25 11:53:00,
2013-09-25 07:54:00,45.7,42.0,29.26,East,90,0.0,0.0,87,0.00,,---,0.00,VWS V13.01,2013-09-25 11:54:00,
2013-09-25 07:55:00,45.7,42.0,29.26,East,90,0.0,0.0,87,0.00,,---,0.00,VWS V13.01,2013-09-25 11:55:00,
2013-09-25 07:59:00,45.7,42.0,29.26,East,90,0.0,0.0,87,0.00,,---,0.00,VWS V13.01,2013-09-25 11:59:00,
2013-09-25 08:00:00,45.7,42.0,29.26,East,90,0.0,0.0,87,0.00,,---,0.00,VWS V13.01,2013-09-25 12:00:00,
2013-09-25 08:01:00,45.7,42.0,29.26,East,90,0.0,0.0,87,0.00,,---,0.00,VWS V13.01,2013-09-25 12:01:00,
2013-09-25 08:02:00,45.7,42.0,29.26,East,90,0.0,0.0,87,0.00,,---,0.00,VWS V13.01,2013-09-25 12:02:00,
2013-09-25 08:06:00,45.7,42.0,29.26,East,90,0.0,0.0,87,0.00,,---,0.00,VWS V13.01,2013-09-25 12:06:00,
2013-09-25 08:07:00,45.7,42.0,29.26,East,90,0.0,0.0,87,0.00,,---,0.00,VWS V13.01,2013-09-25 12:07:00,
2013-09-25 08:08:00,45.7,42.0,29.26,East,90,0.0,0.0,87,0.00,,---,0.00,VWS V13.01,2013-09-25 12:08:00,
2013-09-25 08:11:00,45.7,42.0,29.26,East,90,0.0,0.0,87,0.00,,---,0.00,VWS V13.01,2013-09-25 12:11:00,
2013-09-25 08:12:00,45.7,42.0,29.26,East,90,0.0,0.0,87,0.00,,---,0.00,VWS V13.01,2013-09-25 12:12:00,
2013-09-25 08:13:00,45.7,42.0,29.26,East,90,0.0,0.0,87,0.00,,---,0.00,VWS V13.01,2013-09-25 12:13:00,
2013-09-25 08:14:00,45.7,42.0,29.26,East,90,0.0,0.0,87,0.00,,---,0.00,VWS V13.01,2013-09-25 12:14:00,
2013-09-25 08:15:00,45.7,42.0,29.26,East,90,0.0,0.0,87,0.00,,---,0.00,VWS V13.01,2013-09-25 12:15:00,
2013-09-25 08:18:00,45.7,42.0,29.26,East,90,0.0,0.0,87,0.00,,---,0.00,VWS V13.01,2013-09-25 12:18:00,
2013-09-25 08:20:00,45.7,42.0,29.26,East,90,0.0,0.0,87,0.00,,---,0.00,VWS V13.01,2013-09-25 12:20:00,
2013-09-25 08:23:00,48.0,44.0,29.26,East,90,0.0,0.0,86,0.00,,---,0.00,VWS V13.01,2013-09-25 12:23:00,
2013-09-25 08:26:00,48.0,44.0,29.26,East,90,0.0,0.0,86,0.00,,---,0.00,VWS V13.01,2013-09-25 12:26:00,
2013-09-25 08:28:00,48.0,44.0,29.26,East,90,0.0,0.0,86,0.00,,---,0.00,VWS V13.01,2013-09-25 12:28:00,
2013-09-25 08:31:00,48.0,44.0,29.26,SSW,202,0.0,0.0,86,0.00,,---,0.00,VWS V13.01,2013-09-25 12:31:00,
2013-09-25 08:33:00,48.0,44.0,29.26,East,90,0.0,0.0,86,0.00,,---,0.00,VWS V13.01,2013-09-25 12:33:00,
2013-09-25 08:34:00,48.0,44.0,29.26,East,90,0.0,0.0,86,0.00,,---,0.00,VWS V13.01,2013-09-25 12:34:00,
2013-09-25 08:35:00,48.0,44.0,29.26,East,90,0.0,0.0,86,0.00,,---,0.00,VWS V13.01,2013-09-25 12:35:00,
2013-09-25 08:37:00,48.0,44.0,29.26,East,90,0.0,0.0,86,0.00,,---,0.00,VWS V13.01,2013-09-25 12:37:00,
2013-09-25 08:38:00,48.0,44.0,29.26,East,90,0.0,0.0,86,0.00,,---,0.00,VWS V13.01,2013-09-25 12:38:00,
2013-09-25 08:39:00,48.0,44.0,29.26,East,90,0.0,0.0,86,0.00,,---,0.00,VWS V13.01,2013-09-25 12:39:00,
2013-09-25 08:42:00,48.0,44.0,29.26,East,90,0.0,0.0,86,0.00,,---,0.00,VWS V13.01,2013-09-25 12:42:00,
2013-09-25 08:43:00,48.0,44.0,29.26,East,90,0.0,0.0,86,0.00,,---,0.00,VWS V13.01,2013-09-25 12:43:00,
2013-09-25 08:44:00,48.0,44.0,29.26,East,90,0.0,0.0,86,0.00,,---,0.00,VWS V13.01,2013-09-25 12:44:00,
2013-09-25 08:45:00,50.0,45.0,29.26,North,0,0.0,0.0,83,0.00,,---,0.00,VWS V13.01,2013-09-25 12:45:00,
2013-09-25 08:48:00,50.2,45.2,29.26,North,0,0.0,0.0,83,0.00,,---,0.00,VWS V13.01,2013-09-25 12:48:00,
2013-09-25 08:50:00,50.2,45.2,29.26,NE,45,0.0,0.0,83,0.00,,---,0.00,VWS V13.01,2013-09-25 12:50:00,
2013-09-25 08:51:00,50.2,45.2,29.26,NE,45,0.0,0.0,83,0.00,,---,0.00,VWS V13.01,2013-09-25 12:51:00,
2013-09-25 08:52:00,50.2,45.2,29.26,North,0,0.0,0.0,83,0.00,,---,0.00,VWS V13.01,2013-09-25 12:52:00,
2013-09-25 08:54:00,50.2,45.2,29.26,NE,45,0.0,0.0,83,0.00,,---,0.00,VWS V13.01,2013-09-25 12:54:00,
2013-09-25 08:56:00,50.2,45.2,29.26,NNE,22,0.0,0.0,83,0.00,,---,0.00,VWS V13.01,2013-09-25 12:56:00,
2013-09-25 08:58:00,50.2,45.2,29.26,West,270,0.0,0.0,83,0.00,,---,0.00,VWS V13.01,2013-09-25 12:58:00,
2013-09-25 08:59:00,50.2,45.2,29.26,NE,45,1.1,1.1,83,0.00,,---,0.00,VWS V13.01,2013-09-25 12:59:00,
2013-09-25 09:02:00,51.3,45.3,29.26,East,90,0.0,0.0,80,0.00,,---,0.00,VWS V13.01,2013-09-25 13:02:00,
2013-09-25 09:04:00,51.3,45.3,29.26,NNE,22,0.0,0.0,80,0.00,,---,0.00,VWS V13.01,2013-09-25 13:04:00,
2013-09-25 09:06:00,51.3,45.3,29.26,NE,45,0.0,0.0,80,0.00,,---,0.00,VWS V13.01,2013-09-25 13:06:00,
2013-09-25 09:09:00,51.3,45.3,29.26,WNW,292,0.0,0.0,80,0.00,,---,0.00,VWS V13.01,2013-09-25 13:09:00,
2013-09-25 09:10:00,51.3,45.3,29.26,West,270,0.0,0.0,80,0.00,,---,0.00,VWS V13.01,2013-09-25 13:10:00,
2013-09-25 09:11:00,51.3,45.3,29.26,West,270,0.0,0.0,80,0.00,,---,0.00,VWS V13.01,2013-09-25 13:11:00,
2013-09-25 09:12:00,51.3,45.3,29.26,WNW,292,1.1,1.1,80,0.00,,---,0.00,VWS V13.01,2013-09-25 13:12:00,
2013-09-25 09:14:00,52.3,46.0,29.26,West,270,0.0,0.0,79,0.00,,---,0.00,VWS V13.01,2013-09-25 13:14:00,
2013-09-25 09:16:00,52.3,46.0,29.26,SW,225,0.0,0.0,79,0.00,,---,0.00,VWS V13.01,2013-09-25 13:16:00,
2013-09-25 09:18:00,52.3,46.0,29.26,NE,45,0.9,0.9,79,0.00,,---,0.00,VWS V13.01,2013-09-25 13:18:00,
2013-09-25 09:21:00,52.3,46.0,29.26,NE,45,1.1,1.1,79,0.00,,---,0.00,VWS V13.01,2013-09-25 13:21:00,
2013-09-25 09:22:00,52.3,46.0,29.26,WNW,292,0.0,0.0,79,0.00,,---,0.00,VWS V13.01,2013-09-25 13:22:00,
2013-09-25 09:23:00,52.3,46.0,29.26,WNW,292,0.0,0.0,79,0.00,,---,0.00,VWS V13.01,2013-09-25 13:23:00,
2013-09-25 09:25:00,52.3,46.0,29.26,NNE,22,0.0,0.0,79,0.00,,---,0.00,VWS V13.01,2013-09-25 13:25:00,
2013-09-25 09:28:00,52.3,46.0,29.26,WNW,292,0.0,0.0,79,0.00,,---,0.00,VWS V13.01,2013-09-25 13:28:00,
2013-09-25 09:29:00,52.3,46.0,29.26,SW,225,0.0,0.0,79,0.00,,---,0.00,VWS V13.01,2013-09-25 13:29:00,
2013-09-25 09:30:00,52.3,46.0,29.26,WSW,248,0.0,0.0,79,0.00,,---,0.00,VWS V13.01,2013-09-25 13:30:00,
2013-09-25 09:31:00,52.3,46.0,29.26,West,270,0.0,0.0,79,0.00,,---,0.00,VWS V13.01,2013-09-25 13:31:00,
2013-09-25 09:33:00,52.3,46.0,29.26,SW,225,0.9,0.9,79,0.00,,---,0.00,VWS V13.01,2013-09-25 13:33:00,
2013-09-25 09:35:00,52.3,46.0,29.26,NW,315,0.0,0.0,79,0.00,,---,0.00,VWS V13.01,2013-09-25 13:35:00,
2013-09-25 09:37:00,52.3,46.0,29.26,WNW,292,0.0,0.0,79,0.00,,---,0.00,VWS V13.01,2013-09-25 13:37:00,
2013-09-25 09:39:00,54.1,46.8,29.26,NW,315,0.0,1.1,76,0.00,,---,0.00,VWS V13.01,2013-09-25 13:39:00,
2013-09-25 09:40:00,54.1,46.8,29.26,West,270,1.1,1.1,76,0.00,,---,0.00,VWS V13.01,2013-09-25 13:40:00,
2013-09-25 09:43:00,54.7,46.6,29.26,ENE,68,1.3,2.0,74,0.00,,---,0.00,VWS V13.01,2013-09-25 13:43:00,
2013-09-25 09:44:00,54.7,46.6,29.26,ENE,68,1.1,1.3,74,0.00,,---,0.00,VWS V13.01,2013-09-25 13:44:00,
2013-09-25 09:45:00,54.7,46.6,29.26,North,0,2.7,2.7,74,0.00,,---,0.00,VWS V13.01,2013-09-25 13:45:00,
2013-09-25 09:47:00,54.7,46.6,29.26,North,0,0.0,2.7,74,0.00,,---,0.00,VWS V13.01,2013-09-25 13:47:00,
2013-09-25 09:49:00,54.7,46.6,29.26,NW,315,1.1,1.1,74,0.00,,---,0.00,VWS V13.01,2013-09-25 13:49:00,
2013-09-25 09:50:00,54.7,46.6,29.26,SW,225,1.3,1.3,74,0.00,,---,0.00,VWS V13.01,2013-09-25 13:50:00,
2013-09-25 09:51:00,54.7,46.6,29.26,NW,315,0.0,1.3,74,0.00,,---,0.00,VWS V13.01,2013-09-25 13:51:00,
2013-09-25 09:53:00,54.7,46.6,29.26,WNW,292,0.0,0.0,74,0.00,,---,0.00,VWS V13.01,2013-09-25 13:53:00,
2013-09-25 09:55:00,54.7,46.6,29.26,WNW,292,1.6,1.6,74,0.00,,---,0.00,VWS V13.01,2013-09-25 13:55:00,
2013-09-25 09:59:00,54.7,46.6,29.26,WSW,248,0.0,0.0,74,0.00,,---,0.00,VWS V13.01,2013-09-25 13:59:00,
2013-09-25 10:00:00,54.7,46.6,29.26,SW,225,0.0,0.0,74,0.00,,---,0.00,VWS V13.01,2013-09-25 14:00:00,
2013-09-25 10:03:00,54.7,46.6,29.26,ENE,68,1.1,1.1,74,0.00,,---,0.00,VWS V13.01,2013-09-25 14:03:00,
2013-09-25 10:04:00,54.7,46.6,29.26,SW,225,0.0,1.1,74,0.00,,---,0.00,VWS V13.01,2013-09-25 14:04:00,
2013-09-25 10:07:00,54.7,46.6,29.26,SW,225,0.0,0.0,74,0.00,,---,0.00,VWS V13.01,2013-09-25 14:07:00,
2013-09-25 10:11:00,56.5,47.2,29.26,SW,225,0.0,0.0,71,0.00,,---,0.00,VWS V13.01,2013-09-25 14:11:00,
2013-09-25 10:13:00,56.5,47.2,29.26,WNW,292,0.0,0.0,71,0.00,,---,0.00,VWS V13.01,2013-09-25 14:13:00,
2013-09-25 10:14:00,56.5,47.2,29.26,NNW,338,0.0,0.0,71,0.00,,---,0.00,VWS V13.01,2013-09-25 14:14:00,
2013-09-25 10:16:00,56.5,47.2,29.26,East,90,0.0,0.0,71,0.00,,---,0.00,VWS V13.01,2013-09-25 14:16:00,
2013-09-25 10:17:00,56.5,47.2,29.26,East,90,1.3,1.3,71,0.00,,---,0.00,VWS V13.01,2013-09-25 14:17:00,
2013-09-25 10:18:00,56.5,47.2,29.26,East,90,1.6,1.6,71,0.00,,---,0.00,VWS V13.01,2013-09-25 14:18:00,
2013-09-25 10:22:00,56.5,47.2,29.26,East,90,1.3,1.3,71,0.00,,---,0.00,VWS V13.01,2013-09-25 14:22:00,
2013-09-25 10:23:00,56.5,47.2,29.26,East,90,0.0,1.3,71,0.00,,---,0.00,VWS V13.01,2013-09-25 14:23:00,
2013-09-25 10:24:00,56.5,47.2,29.26,East,90,0.9,0.9,71,0.00,,---,0.00,VWS V13.01,2013-09-25 14:24:00,
2013-09-25 10:26:00,56.5,47.2,29.26,East,90,1.3,1.3,71,0.00,,---,0.00,VWS V13.01,2013-09-25 14:26:00,
2013-09-25 10:29:00,56.5,47.2,29.26,East,90,0.0,0.0,71,0.00,,---,0.00,VWS V13.01,2013-09-25 14:29:00,
2013-09-25 10:30:00,56.5,47.2,29.26,East,90,0.0,0.0,71,0.00,,---,0.00,VWS V13.01,2013-09-25 14:30:00,
2013-09-25 10:31:00,56.5,47.2,29.26,West,270,0.0,0.0,71,0.00,,---,0.00,VWS V13.01,2013-09-25 14:31:00,
2013-09-25 10:33:00,56.5,47.2,29.26,East,90,1.1,1.1,71,0.00,,---,0.00,VWS V13.01,2013-09-25 14:33:00,
2013-09-25 10:36:00,58.6,47.3,29.26,ENE,68,2.5,2.5,66,0.00,,---,0.00,VWS V13.01,2013-09-25 14:36:00,
2013-09-25 10:38:00,58.6,47.3,29.26,East,90,1.3,1.6,66,0.00,,---,0.00,VWS V13.01,2013-09-25 14:38:00,
2013-09-25 10:39:00,58.6,47.3,29.26,North,0,1.6,1.6,66,0.00,,---,0.00,VWS V13.01,2013-09-25 14:39:00,
2013-09-25 10:40:00,58.6,47.3,29.26,ENE,68,0.0,1.6,66,0.00,,---,0.00,VWS V13.01,2013-09-25 14:40:00,
2013-09-25 10:43:00,58.6,47.3,29.26,East,90,2.2,2.2,66,0.00,,---,0.00,VWS V13.01,2013-09-25 14:43:00,
2013-09-25 10:45:00,58.6,47.3,29.26,SE,135,1.3,1.3,66,0.00,,---,0.00,VWS V13.01,2013-09-25 14:45:00,
2013-09-25 10:46:00,58.6,47.3,29.26,ESE,112,0.0,1.3,66,0.00,,---,0.00,VWS V13.01,2013-09-25 14:46:00,
2013-09-25 10:47:00,58.6,47.3,29.26,East,90,0.0,0.0,66,0.00,,---,0.00,VWS V13.01,2013-09-25 14:47:00,
2013-09-25 10:48:00,58.6,47.3,29.26,ESE,112,0.0,0.0,66,0.00,,---,0.00,VWS V13.01,2013-09-25 14:48:00,
2013-09-25 10:51:00,58.6,47.3,29.26,SSW,202,0.0,1.3,66,0.00,,---,0.00,VWS V13.01,2013-09-25 14:51:00,
2013-09-25 10:53:00,58.6,47.3,29.26,ENE,68,2.0,2.0,66,0.00,,---,0.00,VWS V13.01,2013-09-25 14:53:00,
2013-09-25 10:55:00,58.6,47.3,29.26,SE,135,0.0,0.0,66,0.00,,---,0.00,VWS V13.01,2013-09-25 14:55:00,
2013-09-25 10:57:00,58.6,47.3,29.26,SE,135,0.0,0.0,66,0.00,,---,0.00,VWS V13.01,2013-09-25 14:57:00,
2013-09-25 11:00:00,59.9,48.1,29.26,ENE,68,2.0,2.0,65,0.00,,---,0.00,VWS V13.01,2013-09-25 15:00:00,
2013-09-25 11:02:00,59.9,48.1,29.26,East,90,2.5,2.5,65,0.00,,---,0.00,VWS V13.01,2013-09-25 15:02:00,
2013-09-25 11:03:00,59.9,48.1,29.26,East,90,1.6,2.5,65,0.00,,---,0.00,VWS V13.01,2013-09-25 15:03:00,
2013-09-25 11:04:00,59.9,48.1,29.26,East,90,0.0,1.6,65,0.00,,---,0.00,VWS V13.01,2013-09-25 15:04:00,
2013-09-25 11:05:00,59.9,48.1,29.26,East,90,2.5,2.5,65,0.00,,---,0.00,VWS V13.01,2013-09-25 15:05:00,
2013-09-25 11:07:00,59.9,48.1,29.26,ENE,68,1.3,1.3,65,0.00,,---,0.00,VWS V13.01,2013-09-25 15:07:00,
2013-09-25 11:10:00,59.9,48.1,29.26,NE,45,0.0,1.3,65,0.00,,---,0.00,VWS V13.01,2013-09-25 15:10:00,
2013-09-25 11:11:00,59.9,48.1,29.26,NW,315,1.6,1.6,65,0.00,,---,0.00,VWS V13.01,2013-09-25 15:11:00,
2013-09-25 11:13:00,59.9,48.1,29.26,East,90,0.0,0.0,65,0.00,,---,0.00,VWS V13.01,2013-09-25 15:13:00,
2013-09-25 11:17:00,59.9,48.1,29.26,SW,225,0.0,0.9,65,0.00,,---,0.00,VWS V13.01,2013-09-25 15:17:00,
2013-09-25 11:18:00,59.9,48.1,29.26,WNW,292,2.5,2.7,65,0.00,,---,0.00,VWS V13.01,2013-09-25 15:18:00,
2013-09-25 11:20:00,59.9,48.1,29.26,SSE,158,0.0,0.0,65,0.00,,---,0.00,VWS V13.01,2013-09-25 15:20:00,
2013-09-25 11:22:00,59.9,48.1,29.26,SE,135,0.0,0.9,65,0.00,,---,0.00,VWS V13.01,2013-09-25 15:22:00,
2013-09-25 11:23:00,59.9,48.1,29.26,West,270,2.0,2.0,65,0.00,,---,0.00,VWS V13.01,2013-09-25 15:23:00,
2013-09-25 11:24:00,59.9,48.1,29.26,WNW,292,0.0,2.0,65,0.00,,---,0.00,VWS V13.01,2013-09-25 15:24:00,
2013-09-25 11:25:00,59.9,48.1,29.26,WNW,292,0.0,0.0,65,0.00,,---,0.00,VWS V13.01,2013-09-25 15:25:00,
2013-09-25 11:29:00,61.7,49.0,29.26,West,270,0.0,0.0,63,0.00,,---,0.00,VWS V13.01,2013-09-25 15:29:00,
2013-09-25 11:31:00,61.7,48.6,29.26,SW,225,0.0,0.0,62,0.00,,---,0.00,VWS V13.01,2013-09-25 15:31:00,
2013-09-25 11:32:00,61.7,48.6,29.26,SW,225,0.0,0.0,62,0.00,,---,0.00,VWS V13.01,2013-09-25 15:32:00,
2013-09-25 11:34:00,61.7,48.6,29.26,North,0,1.6,1.6,62,0.00,,---,0.00,VWS V13.01,2013-09-25 15:34:00,
2013-09-25 11:36:00,61.7,48.6,29.26,North,0,0.0,1.3,62,0.00,,---,0.00,VWS V13.01,2013-09-25 15:36:00,
2013-09-25 11:37:00,61.7,48.6,29.26,North,0,0.0,0.0,62,0.00,,---,0.00,VWS V13.01,2013-09-25 15:37:00,
2013-09-25 11:39:00,61.7,48.6,29.26,North,0,0.0,0.0,62,0.00,,---,0.00,VWS V13.01,2013-09-25 15:39:00,
2013-09-25 11:41:00,61.7,48.6,29.26,ESE,112,0.0,3.1,62,0.00,,---,0.00,VWS V13.01,2013-09-25 15:41:00,
2013-09-25 11:43:00,62.2,49.1,29.26,ESE,112,0.9,0.9,62,0.00,,---,0.00,VWS V13.01,2013-09-25 15:43:00,
2013-09-25 11:46:00,62.2,49.1,29.26,WSW,248,0.9,0.9,62,0.00,,---,0.00,VWS V13.01,2013-09-25 15:46:00,
2013-09-25 11:47:00,62.2,49.1,29.26,SW,225,0.0,0.9,62,0.00,,---,0.00,VWS V13.01,2013-09-25 15:47:00,
2013-09-25 11:48:00,62.2,49.1,29.26,SW,225,0.0,0.0,62,0.00,,---,0.00,VWS V13.01,2013-09-25 15:48:00,
2013-09-25 11:49:00,62.2,49.1,29.26,SW,225,0.0,2.2,62,0.00,,---,0.00,VWS V13.01,2013-09-25 15:49:00,
2013-09-25 11:51:00,62.2,49.1,29.26,South,180,1.3,1.3,62,0.00,,---,0.00,VWS V13.01,2013-09-25 15:51:00,
2013-09-25 11:55:00,63.0,49.8,29.26,SW,225,0.0,0.9,62,0.00,,---,0.00,VWS V13.01,2013-09-25 15:55:00,
2013-09-25 11:57:00,63.0,49.3,29.26,East,90,0.0,0.0,61,0.00,,---,0.00,VWS V13.01,2013-09-25 15:57:00,
2013-09-25 11:58:00,63.0,49.3,29.26,NNE,22,1.3,1.3,61,0.00,,---,0.00,VWS V13.01,2013-09-25 15:58:00,
2013-09-25 11:59:00,63.0,49.3,29.26,WSW,248,1.6,1.6,61,0.00,,---,0.00,VWS V13.01,2013-09-25 15:59:00,
2013-09-25 12:03:00,63.1,49.5,29.23,South,180,0.0,0.0,61,0.00,,---,0.00,VWS V13.01,2013-09-25 16:03:00,
2013-09-25 12:05:00,63.1,49.5,29.23,SSE,158,0.0,0.0,61,0.00,,---,0.00,VWS V13.01,2013-09-25 16:05:00,
2013-09-25 12:06:00,63.1,49.5,29.23,NE,45,1.1,1.3,61,0.00,,---,0.00,VWS V13.01,2013-09-25 16:06:00,
2013-09-25 12:07:00,63.5,48.9,29.23,NE,45,0.0,0.0,59,0.00,,---,0.00,VWS V13.01,2013-09-25 16:07:00,
2013-09-25 12:09:00,63.5,48.9,29.23,SE,135,0.0,0.0,59,0.00,,---,0.00,VWS V13.01,2013-09-25 16:09:00,
2013-09-25 12:11:00,63.5,48.9,29.23,SE,135,0.0,0.0,59,0.00,,---,0.00,VWS V13.01,2013-09-25 16:11:00,
2013-09-25 12:12:00,63.5,48.9,29.23,SE,135,0.0,0.0,59,0.00,,---,0.00,VWS V13.01,2013-09-25 16:12:00,
2013-09-25 12:16:00,64.2,50.1,29.23,West,270,1.6,1.6,60,0.00,,---,0.00,VWS V13.01,2013-09-25 16:16:00,
2013-09-25 12:17:00,64.2,50.1,29.23,West,270,1.6,1.6,60,0.00,,---,0.00,VWS V13.01,2013-09-25 16:17:00,
2013-09-25 12:19:00,64.2,50.1,29.23,SW,225,0.0,0.0,60,0.00,,---,0.00,VWS V13.01,2013-09-25 16:19:00,
2013-09-25 12:20:00,64.4,49.8,29.23,SW,225,0.0,0.0,59,0.00,,---,0.00,VWS V13.01,2013-09-25 16:20:00,
2013-09-25 12:21:00,64.4,49.8,29.23,SW,225,0.0,0.0,59,0.00,,---,0.00,VWS V13.01,2013-09-25 16:21:00,
2013-09-25 12:24:00,64.4,49.8,29.23,NNE,22,0.0,0.0,59,0.00,,---,0.00,VWS V13.01,2013-09-25 16:24:00,
2013-09-25 12:25:00,64.4,49.8,29.23,NNE,22,0.0,0.0,59,0.00,,---,0.00,VWS V13.01,2013-09-25 16:25:00,
2013-09-25 12:26:00,64.4,49.8,29.23,NNE,22,0.0,0.0,59,0.00,,---,0.00,VWS V13.01,2013-09-25 16:26:00,
2013-09-25 12:27:00,64.4,49.8,29.23,East,90,1.6,1.6,59,0.00,,---,0.00,VWS V13.01,2013-09-25 16:27:00,
2013-09-25 12:32:00,64.9,48.4,29.23,WSW,248,2.0,2.2,55,0.00,,---,0.00,VWS V13.01,2013-09-25 16:32:00,
2013-09-25 12:33:00,65.1,49.5,29.23,SW,225,1.3,1.3,57,0.00,,---,0.00,VWS V13.01,2013-09-25 16:33:00,
2013-09-25 12:37:00,65.1,49.5,29.23,WSW,248,0.9,2.0,57,0.00,,---,0.00,VWS V13.01,2013-09-25 16:37:00,
2013-09-25 12:39:00,65.1,49.5,29.23,South,180,0.0,1.6,57,0.00,,---,0.00,VWS V13.01,2013-09-25 16:39:00,
2013-09-25 12:41:00,65.3,48.7,29.23,East,90,2.2,2.2,55,0.00,,---,0.00,VWS V13.01,2013-09-25 16:41:00,
2013-09-25 12:43:00,65.3,48.7,29.23,North,0,2.2,2.2,55,0.00,,---,0.00,VWS V13.01,2013-09-25 16:43:00,
2013-09-25 12:45:00,65.3,48.7,29.23,North,0,0.0,0.9,55,0.00,,---,0.00,VWS V13.01,2013-09-25 16:45:00,
2013-09-25 12:49:00,65.3,48.7,29.23,North,0,0.0,1.3,55,0.00,,---,0.00,VWS V13.01,2013-09-25 16:49:00,
2013-09-25 12:51:00,65.3,48.7,29.23,North,0,1.3,1.3,55,0.00,,---,0.00,VWS V13.01,2013-09-25 16:51:00,
2013-09-25 12:53:00,65.3,48.7,29.23,North,0,0.0,1.3,55,0.00,,---,0.00,VWS V13.01,2013-09-25 16:53:00,
2013-09-25 12:55:00,65.3,48.7,29.23,North,0,0.0,1.3,55,0.00,,---,0.00,VWS V13.01,2013-09-25 16:55:00,
2013-09-25 12:57:00,65.8,48.2,29.23,North,0,1.3,1.6,53,0.00,,---,0.00,VWS V13.01,2013-09-25 16:57:00,
2013-09-25 12:58:00,65.8,48.2,29.23,North,0,1.3,1.6,53,0.00,,---,0.00,VWS V13.01,2013-09-25 16:58:00,
2013-09-25 12:59:00,65.8,48.2,29.23,North,0,1.3,1.3,53,0.00,,---,0.00,VWS V13.01,2013-09-25 16:59:00,
2013-09-25 13:01:00,65.8,48.2,29.23,North,0,0.0,1.3,53,0.00,,---,0.00,VWS V13.01,2013-09-25 17:01:00,
2013-09-25 13:03:00,65.8,48.2,29.23,North,0,0.0,0.0,53,0.00,,---,0.00,VWS V13.01,2013-09-25 17:03:00,
2013-09-25 13:07:00,65.8,48.2,29.23,North,0,0.0,0.0,53,0.00,,---,0.00,VWS V13.01,2013-09-25 17:07:00,
2013-09-25 13:09:00,66.0,47.4,29.23,North,0,1.6,1.6,51,0.00,,---,0.00,VWS V13.01,2013-09-25 17:09:00,
2013-09-25 13:14:00,66.2,47.6,29.23,ESE,112,0.0,1.1,51,0.00,,---,0.00,VWS V13.01,2013-09-25 17:14:00,
2013-09-25 13:15:00,66.2,47.6,29.23,SW,225,0.0,0.0,51,0.00,,---,0.00,VWS V13.01,2013-09-25 17:15:00,
2013-09-25 13:16:00,66.2,47.6,29.23,SSE,158,0.0,1.3,51,0.00,,---,0.00,VWS V13.01,2013-09-25 17:16:00,
2013-09-25 13:18:00,66.2,47.6,29.23,North,0,1.1,1.1,51,0.00,,---,0.00,VWS V13.01,2013-09-25 17:18:00,
2013-09-25 13:19:00,66.0,47.9,29.23,ENE,68,1.6,1.6,52,0.00,,---,0.00,VWS V13.01,2013-09-25 17:19:00,
2013-09-25 13:22:00,66.0,47.9,29.23,NNE,22,0.0,0.9,52,0.00,,---,0.00,VWS V13.01,2013-09-25 17:22:00,
2013-09-25 13:24:00,66.0,47.9,29.23,NE,45,0.0,0.0,52,0.00,,---,0.00,VWS V13.01,2013-09-25 17:24:00,
2013-09-25 13:25:00,66.0,47.9,29.23,North,0,0.0,0.0,52,0.00,,---,0.00,VWS V13.01,2013-09-25 17:25:00,
2013-09-25 13:26:00,66.0,47.9,29.23,North,0,0.0,0.0,52,0.00,,---,0.00,VWS V13.01,2013-09-25 17:26:00,
2013-09-25 13:27:00,66.0,47.9,29.23,North,0,0.0,0.0,52,0.00,,---,0.00,VWS V13.01,2013-09-25 17:27:00,
2013-09-25 13:30:00,66.0,47.9,29.23,NE,45,1.6,2.5,52,0.00,,---,0.00,VWS V13.01,2013-09-25 17:30:00,
2013-09-25 13:31:00,66.0,47.9,29.23,North,0,2.5,2.5,52,0.00,,---,0.00,VWS V13.01,2013-09-25 17:31:00,
2013-09-25 13:33:00,66.4,46.7,29.23,North,0,0.0,0.9,49,0.00,,---,0.00,VWS V13.01,2013-09-25 17:33:00,
2013-09-25 13:34:00,66.4,46.7,29.23,North,0,0.0,0.0,49,0.00,,---,0.00,VWS V13.01,2013-09-25 17:34:00,
2013-09-25 13:36:00,66.6,47.4,29.23,North,0,2.2,2.2,50,0.00,,---,0.00,VWS V13.01,2013-09-25 17:36:00,
2013-09-25 13:37:00,66.6,47.4,29.23,North,0,2.2,2.2,50,0.00,,---,0.00,VWS V13.01,2013-09-25 17:37:00,
2013-09-25 13:38:00,66.6,47.4,29.23,North,0,1.6,2.2,50,0.00,,---,0.00,VWS V13.01,2013-09-25 17:38:00,
2013-09-25 13:41:00,66.6,47.4,29.23,North,0,0.0,0.9,50,0.00,,---,0.00,VWS V13.01,2013-09-25 17:41:00,
2013-09-25 13:43:00,66.6,47.4,29.23,North,0,0.0,0.0,50,0.00,,---,0.00,VWS V13.01,2013-09-25 17:43:00,
2013-09-25 13:44:00,66.6,47.4,29.23,North,0,0.0,0.0,50,0.00,,---,0.00,VWS V13.01,2013-09-25 17:44:00,
2013-09-25 13:46:00,66.6,47.4,29.23,North,0,0.0,0.0,50,0.00,,---,0.00,VWS V13.01,2013-09-25 17:46:00,
2013-09-25 13:49:00,66.9,47.7,29.23,North,0,0.0,0.0,50,0.00,,---,0.00,VWS V13.01,2013-09-25 17:49:00,
2013-09-25 13:50:00,66.9,47.7,29.23,North,0,0.0,0.0,50,0.00,,---,0.00,VWS V13.01,2013-09-25 17:50:00,
2013-09-25 13:52:00,66.9,47.7,29.23,North,0,0.0,1.1,50,0.00,,---,0.00,VWS V13.01,2013-09-25 17:52:00,
2013-09-25 13:54:00,66.9,47.7,29.23,North,0,1.1,1.1,50,0.00,,---,0.00,VWS V13.01,2013-09-25 17:54:00,
2013-09-25 13:55:00,66.9,47.7,29.23,North,0,0.0,1.1,50,0.00,,---,0.00,VWS V13.01,2013-09-25 17:55:00,
2013-09-25 13:56:00,66.9,47.7,29.23,SE,135,0.0,0.0,50,0.00,,---,0.00,VWS V13.01,2013-09-25 17:56:00,
2013-09-25 13:58:00,66.9,47.7,29.23,West,270,1.1,2.2,50,0.00,,---,0.00,VWS V13.01,2013-09-25 17:58:00,
2013-09-25 13:59:00,66.9,47.7,29.20,SW,225,0.0,1.1,50,0.00,,---,0.00,VWS V13.01,2013-09-25 17:59:00,
2013-09-25 14:01:00,66.9,47.7,29.20,NNE,22,0.9,1.1,50,0.00,,---,0.00,VWS V13.01,2013-09-25 18:01:00,
2013-09-25 14:06:00,66.7,47.0,29.20,East,90,1.3,1.3,49,0.00,,---,0.00,VWS V13.01,2013-09-25 18:06:00,
2013-09-25 14:07:00,66.7,47.0,29.20,ESE,112,0.0,1.3,49,0.00,,---,0.00,VWS V13.01,2013-09-25 18:07:00,
2013-09-25 14:10:00,66.7,47.0,29.20,West,270,1.3,1.3,49,0.00,,---,0.00,VWS V13.01,2013-09-25 18:10:00,
2013-09-25 14:12:00,66.7,47.0,29.20,West,270,1.6,1.6,49,0.00,,---,0.00,VWS V13.01,2013-09-25 18:12:00,
2013-09-25 14:14:00,66.7,47.0,29.20,WSW,248,0.0,0.0,49,0.00,,---,0.00,VWS V13.01,2013-09-25 18:14:00,
2013-09-25 14:18:00,66.7,47.0,29.20,SW,225,0.0,0.0,49,0.00,,---,0.00,VWS V13.01,2013-09-25 18:18:00,
2013-09-25 14:19:00,66.6,48.4,29.20,SW,225,0.0,0.0,52,0.00,,---,0.00,VWS V13.01,2013-09-25 18:19:00,
2013-09-25 14:22:00,66.6,48.4,29.20,WSW,248,1.1,1.1,52,0.00,,---,0.00,VWS V13.01,2013-09-25 18:22:00,
2013-09-25 14:23:00,66.6,48.4,29.20,WSW,248,0.0,1.1,52,0.00,,---,0.00,VWS V13.01,2013-09-25 18:23:00,
2013-09-25 14:24:00,66.6,48.4,29.20,WSW,248,0.9,0.9,52,0.00,,---,0.00,VWS V13.01,2013-09-25 18:24:00,
2013-09-25 14:26:00,66.7,48.1,29.20,WSW,248,0.0,0.0,51,0.00,,---,0.00,VWS V13.01,2013-09-25 18:26:00,
2013-09-25 14:28:00,66.7,48.1,29.20,NNE,22,1.3,1.3,51,0.00,,---,0.00,VWS V13.01,2013-09-25 18:28:00,
2013-09-25 14:31:00,66.7,48.1,29.20,NNE,22,1.6,1.6,51,0.00,,---,0.00,VWS V13.01,2013-09-25 18:31:00,
2013-09-25 14:32:00,66.7,48.1,29.20,ESE,112,0.9,0.9,51,0.00,,---,0.00,VWS V13.01,2013-09-25 18:32:00,
2013-09-25 14:34:00,66.7,48.1,29.20,West,270,0.0,1.3,51,0.00,,---,0.00,VWS V13.01,2013-09-25 18:34:00,
2013-09-25 14:35:00,66.7,48.1,29.20,WSW,248,2.0,2.0,51,0.00,,---,0.00,VWS V13.01,2013-09-25 18:35:00,
2013-09-25 14:36:00,66.7,47.5,29.20,SW,225,0.0,2.0,50,0.00,,---,0.00,VWS V13.01,2013-09-25 18:36:00,
2013-09-25 14:38:00,66.7,47.5,29.20,SW,225,0.0,0.0,50,0.00,,---,0.00,VWS V13.01,2013-09-25 18:38:00,
2013-09-25 14:39:00,66.7,47.5,29.20,SW,225,0.0,0.0,50,0.00,,---,0.00,VWS V13.01,2013-09-25 18:39:00,
2013-09-25 14:40:00,66.7,47.5,29.20,SSE,158,0.9,0.9,50,0.00,,---,0.00,VWS V13.01,2013-09-25 18:40:00,
2013-09-25 14:45:00,66.7,47.5,29.20,SW,225,1.3,1.3,50,0.00,,---,0.00,VWS V13.01,2013-09-25 18:45:00,
2013-09-25 14:46:00,66.7,47.5,29.20,SW,225,1.3,1.3,50,0.00,,---,0.00,VWS V13.01,2013-09-25 18:46:00,
2013-09-25 14:48:00,66.7,47.5,29.20,SW,225,0.0,0.0,50,0.00,,---,0.00,VWS V13.01,2013-09-25 18:48:00,
2013-09-25 14:52:00,66.7,47.5,29.20,ESE,112,0.0,0.9,50,0.00,,---,0.00,VWS V13.01,2013-09-25 18:52:00,
2013-09-25 14:53:00,66.7,47.5,29.20,East,90,1.1,1.1,50,0.00,,---,0.00,VWS V13.01,2013-09-25 18:53:00,
2013-09-25 14:55:00,66.9,47.7,29.20,East,90,0.0,1.1,50,0.00,,---,0.00,VWS V13.01,2013-09-25 18:55:00,
2013-09-25 14:56:00,66.9,47.7,29.20,North,0,0.0,1.1,50,0.00,,---,0.00,VWS V13.01,2013-09-25 18:56:00,
2013-09-25 14:59:00,66.9,47.7,29.20,North,0,0.0,1.6,50,0.00,,---,0.00,VWS V13.01,2013-09-25 18:59:00,
2013-09-25 15:00:00,66.9,47.7,29.20,North,0,0.0,0.0,50,0.00,,---,0.00,VWS V13.01,2013-09-25 19:00:00,
2013-09-25 15:02:00,66.9,47.7,29.20,North,0,0.0,0.0,50,0.00,,---,0.00,VWS V13.01,2013-09-25 19:02:00,
2013-09-25 15:05:00,66.9,47.7,29.20,SW,225,0.0,2.2,50,0.00,,---,0.00,VWS V13.01,2013-09-25 19:05:00,
2013-09-25 15:06:00,66.9,47.7,29.20,WSW,248,1.3,1.3,50,0.00,,---,0.00,VWS V13.01,2013-09-25 19:06:00,
2013-09-25 15:08:00,66.9,47.7,29.20,SW,225,0.0,0.9,50,0.00,,---,0.00,VWS V13.01,2013-09-25 19:08:00,
2013-09-25 15:10:00,66.7,48.6,29.20,SW,225,0.0,0.0,52,0.00,,---,0.00,VWS V13.01,2013-09-25 19:10:00,
2013-09-25 15:12:00,66.7,48.6,29.20,SSW,202,0.0,0.0,52,0.00,,---,0.00,VWS V13.01,2013-09-25 19:12:00,
2013-09-25 15:14:00,66.7,48.6,29.20,SSW,202,0.0,0.0,52,0.00,,---,0.00,VWS V13.01,2013-09-25 19:14:00,
2013-09-25 15:16:00,66.7,48.6,29.20,SSW,202,0.9,0.9,52,0.00,,---,0.00,VWS V13.01,2013-09-25 19:16:00,
2013-09-25 15:18:00,66.7,48.6,29.20,SSW,202,0.0,0.9,52,0.00,,---,0.00,VWS V13.01,2013-09-25 19:18:00,
2013-09-25 15:20:00,66.7,48.1,29.20,SSW,202,0.9,0.9,51,0.00,,---,0.00,VWS V13.01,2013-09-25 19:20:00,
2013-09-25 15:21:00,66.7,48.1,29.20,SSW,202,0.0,0.9,51,0.00,,---,0.00,VWS V13.01,2013-09-25 19:21:00,
2013-09-25 15:23:00,66.7,48.1,29.20,SSW,202,0.0,0.0,51,0.00,,---,0.00,VWS V13.01,2013-09-25 19:23:00,
2013-09-25 15:25:00,66.6,47.9,29.20,SSW,202,0.0,0.0,51,0.00,,---,0.00,VWS V13.01,2013-09-25 19:25:00,
2013-09-25 15:26:00,66.4,47.7,29.20,SSW,202,0.0,0.0,51,0.00,,---,0.00,VWS V13.01,2013-09-25 19:26:00,
2013-09-25 15:28:00,66.4,47.7,29.20,SSW,202,0.0,0.0,51,0.00,,---,0.00,VWS V13.01,2013-09-25 19:28:00,
2013-09-25 15:30:00,66.4,47.7,29.20,SSW,202,0.0,0.0,51,0.00,,---,0.00,VWS V13.01,2013-09-25 19:30:00,
2013-09-25 15:32:00,66.4,47.7,29.20,South,180,0.0,0.0,51,0.00,,---,0.00,VWS V13.01,2013-09-25 19:32:00,
2013-09-25 15:35:00,66.4,47.7,29.20,South,180,0.0,0.0,51,0.00,,---,0.00,VWS V13.01,2013-09-25 19:35:00,
2013-09-25 15:36:00,66.4,47.7,29.20,South,180,0.0,0.0,51,0.00,,---,0.00,VWS V13.01,2013-09-25 19:36:00,
2013-09-25 15:38:00,66.4,47.7,29.20,SW,225,0.0,0.0,51,0.00,,---,0.00,VWS V13.01,2013-09-25 19:38:00,
2013-09-25 15:40:00,66.4,47.7,29.20,SW,225,0.0,0.0,51,0.00,,---,0.00,VWS V13.01,2013-09-25 19:40:00,
2013-09-25 15:41:00,66.4,47.7,29.20,SW,225,0.0,0.0,51,0.00,,---,0.00,VWS V13.01,2013-09-25 19:41:00,
2013-09-25 15:44:00,65.8,47.7,29.20,SW,225,0.0,0.0,52,0.00,,---,0.00,VWS V13.01,2013-09-25 19:44:00,
2013-09-25 15:47:00,65.8,47.7,29.20,ESE,112,0.0,0.0,52,0.00,,---,0.00,VWS V13.01,2013-09-25 19:47:00,
2013-09-25 15:50:00,65.8,47.7,29.20,ESE,112,0.0,0.0,52,0.00,,---,0.00,VWS V13.01,2013-09-25 19:50:00,
2013-09-25 15:51:00,65.8,47.7,29.20,SW,225,0.0,0.0,52,0.00,,---,0.00,VWS V13.01,2013-09-25 19:51:00,
2013-09-25 15:52:00,65.8,47.7,29.20,SW,225,0.0,0.0,52,0.00,,---,0.00,VWS V13.01,2013-09-25 19:52:00,
2013-09-25 15:53:00,65.8,47.7,29.20,SW,225,0.0,0.0,52,0.00,,---,0.00,VWS V13.01,2013-09-25 19:53:00,
2013-09-25 15:54:00,65.8,47.7,29.20,NE,45,1.1,1.1,52,0.00,,---,0.00,VWS V13.01,2013-09-25 19:54:00,
2013-09-25 15:56:00,65.8,47.2,29.20,ESE,112,0.0,0.0,51,0.00,,---,0.00,VWS V13.01,2013-09-25 19:56:00,
2013-09-25 15:58:00,65.8,47.2,29.20,NNE,22,1.1,1.1,51,0.00,,---,0.00,VWS V13.01,2013-09-25 19:58:00,
2013-09-25 16:00:00,65.7,47.1,29.20,NNE,22,0.0,1.1,51,0.00,,---,0.00,VWS V13.01,2013-09-25 20:00:00,
2013-09-25 16:01:00,65.7,47.1,29.20,NNE,22,0.0,0.0,51,0.00,,---,0.00,VWS V13.01,2013-09-25 20:01:00,
2013-09-25 16:04:00,65.7,47.1,29.20,NNE,22,0.0,0.0,51,0.00,,---,0.00,VWS V13.01,2013-09-25 20:04:00,
2013-09-25 16:05:00,65.7,47.1,29.20,NNE,22,0.0,0.0,51,0.00,,---,0.00,VWS V13.01,2013-09-25 20:05:00,
2013-09-25 16:06:00,65.7,47.1,29.20,NNE,22,0.0,0.0,51,0.00,,---,0.00,VWS V13.01,2013-09-25 20:06:00,
2013-09-25 16:08:00,65.7,47.1,29.20,NNE,22,0.0,0.0,51,0.00,,---,0.00,VWS V13.01,2013-09-25 20:08:00,
2013-09-25 16:10:00,65.7,47.1,29.20,NNE,22,0.0,0.0,51,0.00,,---,0.00,VWS V13.01,2013-09-25 20:10:00,
2013-09-25 16:12:00,65.7,47.6,29.20,NNE,22,0.0,0.0,52,0.00,,---,0.00,VWS V13.01,2013-09-25 20:12:00,
2013-09-25 16:13:00,65.7,47.6,29.20,NNE,22,0.0,0.0,52,0.00,,---,0.00,VWS V13.01,2013-09-25 20:13:00,
2013-09-25 16:14:00,65.7,47.6,29.20,NNE,22,0.0,0.0,52,0.00,,---,0.00,VWS V13.01,2013-09-25 20:14:00,
2013-09-25 16:17:00,65.3,47.2,29.20,NNE,22,1.1,1.1,52,0.00,,---,0.00,VWS V13.01,2013-09-25 20:17:00,
2013-09-25 16:18:00,65.3,47.2,29.20,NNE,22,0.0,1.1,52,0.00,,---,0.00,VWS V13.01,2013-09-25 20:18:00,
2013-09-25 16:19:00,65.3,47.2,29.20,East,90,1.3,1.3,52,0.00,,---,0.00,VWS V13.01,2013-09-25 20:19:00,
2013-09-25 16:20:00,65.3,47.2,29.20,East,90,0.0,1.3,52,0.00,,---,0.00,VWS V13.01,2013-09-25 20:20:00,
2013-09-25 16:23:00,65.3,47.2,29.20,North,0,0.0,0.0,52,0.00,,---,0.00,VWS V13.01,2013-09-25 20:23:00,
2013-09-25 16:24:00,65.3,47.2,29.20,North,0,0.0,0.0,52,0.00,,---,0.00,VWS V13.01,2013-09-25 20:24:00,
2013-09-25 16:26:00,65.3,47.2,29.20,North,0,0.0,0.0,52,0.00,,---,0.00,VWS V13.01,2013-09-25 20:26:00,
2013-09-25 16:28:00,65.3,47.2,29.20,North,0,0.0,0.0,52,0.00,,---,0.00,VWS V13.01,2013-09-25 20:28:00,
2013-09-25 16:32:00,65.3,47.2,29.20,North,0,0.0,0.0,52,0.00,,---,0.00,VWS V13.01,2013-09-25 20:32:00,
2013-09-25 16:33:00,65.3,47.2,29.20,North,0,0.0,0.0,52,0.00,,---,0.00,VWS V13.01,2013-09-25 20:33:00,
2013-09-25 16:34:00,65.3,47.2,29.20,North,0,0.0,0.0,52,0.00,,---,0.00,VWS V13.01,2013-09-25 20:34:00,
2013-09-25 16:40:00,64.2,49.2,29.20,North,0,0.0,0.0,58,0.00,,---,0.00,VWS V13.01,2013-09-25 20:40:00,
2013-09-25 16:41:00,64.2,49.2,29.20,North,0,0.0,0.0,58,0.00,,---,0.00,VWS V13.01,2013-09-25 20:41:00,
2013-09-25 16:42:00,64.2,49.6,29.20,North,0,0.0,0.0,59,0.00,,---,0.00,VWS V13.01,2013-09-25 20:42:00,
2013-09-25 16:44:00,64.2,49.6,29.20,North,0,0.0,0.0,59,0.00,,---,0.00,VWS V13.01,2013-09-25 20:44:00,
2013-09-25 16:46:00,64.2,49.6,29.20,North,0,0.0,0.0,59,0.00,,---,0.00,VWS V13.01,2013-09-25 20:46:00,
2013-09-25 16:49:00,63.9,50.6,29.20,North,0,0.0,0.0,62,0.00,,---,0.00,VWS V13.01,2013-09-25 20:49:00,
2013-09-25 16:50:00,63.9,50.6,29.20,North,0,0.0,0.0,62,0.00,,---,0.00,VWS V13.01,2013-09-25 20:50:00,
2013-09-25 16:51:00,63.9,50.6,29.20,North,0,0.0,0.0,62,0.00,,---,0.00,VWS V13.01,2013-09-25 20:51:00,
2013-09-25 16:53:00,63.9,50.6,29.20,North,0,0.0,0.0,62,0.00,,---,0.00,VWS V13.01,2013-09-25 20:53:00,
2013-09-25 16:54:00,63.9,50.6,29.20,North,0,0.0,0.0,62,0.00,,---,0.00,VWS V13.01,2013-09-25 20:54:00,
2013-09-25 16:57:00,63.9,50.6,29.20,North,0,0.0,0.0,62,0.00,,---,0.00,VWS V13.01,2013-09-25 20:57:00,
2013-09-25 16:59:00,63.9,50.6,29.20,North,0,0.0,0.0,62,0.00,,---,0.00,VWS V13.01,2013-09-25 20:59:00,
2013-09-25 17:02:00,63.9,50.6,29.20,North,0,0.0,0.0,62,0.00,,---,0.00,VWS V13.01,2013-09-25 21:02:00,
2013-09-25 17:03:00,63.9,50.6,29.20,North,0,0.0,0.0,62,0.00,,---,0.00,VWS V13.01,2013-09-25 21:03:00,
2013-09-25 17:05:00,63.9,50.6,29.20,North,0,0.0,0.0,62,0.00,,---,0.00,VWS V13.01,2013-09-25 21:05:00,
2013-09-25 17:07:00,63.9,50.6,29.20,North,0,0.0,0.0,62,0.00,,---,0.00,VWS V13.01,2013-09-25 21:07:00,
2013-09-25 17:08:00,63.9,50.6,29.20,North,0,0.0,0.0,62,0.00,,---,0.00,VWS V13.01,2013-09-25 21:08:00,
2013-09-25 17:09:00,63.9,50.6,29.20,North,0,0.0,0.0,62,0.00,,---,0.00,VWS V13.01,2013-09-25 21:09:00,
2013-09-25 17:10:00,63.5,52.0,29.20,North,0,0.0,0.0,66,0.00,,---,0.00,VWS V13.01,2013-09-25 21:10:00,
2013-09-25 17:13:00,63.5,52.0,29.20,North,0,0.0,0.0,66,0.00,,---,0.00,VWS V13.01,2013-09-25 21:13:00,
2013-09-25 17:14:00,63.5,52.0,29.20,North,0,0.0,0.0,66,0.00,,---,0.00,VWS V13.01,2013-09-25 21:14:00,
2013-09-25 17:15:00,63.5,52.0,29.20,North,0,0.0,0.0,66,0.00,,---,0.00,VWS V13.01,2013-09-25 21:15:00,
2013-09-25 17:17:00,63.5,52.0,29.20,North,0,0.0,0.0,66,0.00,,---,0.00,VWS V13.01,2013-09-25 21:17:00,
2013-09-25 17:19:00,63.5,52.0,29.20,North,0,0.0,0.0,66,0.00,,---,0.00,VWS V13.01,2013-09-25 21:19:00,
2013-09-25 17:21:00,63.5,52.0,29.20,North,0,0.0,0.0,66,0.00,,---,0.00,VWS V13.01,2013-09-25 21:21:00,
2013-09-25 17:22:00,63.5,52.0,29.20,North,0,0.0,0.0,66,0.00,,---,0.00,VWS V13.01,2013-09-25 21:22:00,
2013-09-25 17:24:00,63.5,52.0,29.20,North,0,0.0,0.0,66,0.00,,---,0.00,VWS V13.01,2013-09-25 21:24:00,
2013-09-25 17:25:00,63.5,52.0,29.20,North,0,0.0,0.0,66,0.00,,---,0.00,VWS V13.01,2013-09-25 21:25:00,
2013-09-25 17:26:00,63.5,52.0,29.20,North,0,0.0,0.0,66,0.00,,---,0.00,VWS V13.01,2013-09-25 21:26:00,
2013-09-25 17:29:00,63.5,52.0,29.20,North,0,0.0,0.0,66,0.00,,---,0.00,VWS V13.01,2013-09-25 21:29:00,
2013-09-25 17:31:00,63.5,52.0,29.20,North,0,0.0,0.0,66,0.00,,---,0.00,VWS V13.01,2013-09-25 21:31:00,
2013-09-25 17:32:00,63.5,52.0,29.20,North,0,0.0,0.0,66,0.00,,---,0.00,VWS V13.01,2013-09-25 21:32:00,
2013-09-25 17:34:00,62.8,52.1,29.20,North,0,0.0,0.0,68,0.00,,---,0.00,VWS V13.01,2013-09-25 21:34:00,
2013-09-25 17:35:00,62.8,52.1,29.20,North,0,0.0,0.0,68,0.00,,---,0.00,VWS V13.01,2013-09-25 21:35:00,
2013-09-25 17:37:00,62.8,52.1,29.20,North,0,0.0,0.0,68,0.00,,---,0.00,VWS V13.01,2013-09-25 21:37:00,
2013-09-25 17:40:00,62.6,51.9,29.20,North,0,0.0,0.0,68,0.00,,---,0.00,VWS V13.01,2013-09-25 21:40:00,
2013-09-25 17:41:00,62.6,51.9,29.20,North,0,0.0,0.0,68,0.00,,---,0.00,VWS V13.01,2013-09-25 21:41:00,
2013-09-25 17:42:00,62.6,51.9,29.20,North,0,0.0,0.0,68,0.00,,---,0.00,VWS V13.01,2013-09-25 21:42:00,
2013-09-25 17:44:00,62.6,51.9,29.20,North,0,0.0,0.0,68,0.00,,---,0.00,VWS V13.01,2013-09-25 21:44:00,
2013-09-25 17:46:00,62.6,51.9,29.20,North,0,0.0,0.0,68,0.00,,---,0.00,VWS V13.01,2013-09-25 21:46:00,
2013-09-25 17:48:00,62.2,52.0,29.20,North,0,0.0,0.0,69,0.00,,---,0.00,VWS V13.01,2013-09-25 21:48:00,
2013-09-25 17:49:00,62.2,52.0,29.20,North,0,0.0,0.0,69,0.00,,---,0.00,VWS V13.01,2013-09-25 21:49:00,
2013-09-25 17:51:00,62.2,52.0,29.20,North,0,0.0,0.0,69,0.00,,---,0.00,VWS V13.01,2013-09-25 21:51:00,
2013-09-25 17:53:00,61.9,52.0,29.20,North,0,0.0,0.0,70,0.00,,---,0.00,VWS V13.01,2013-09-25 21:53:00,
2013-09-25 17:55:00,61.9,52.0,29.20,North,0,0.0,0.0,70,0.00,,---,0.00,VWS V13.01,2013-09-25 21:55:00,
2013-09-25 17:57:00,61.9,52.0,29.20,North,0,0.0,0.0,70,0.00,,---,0.00,VWS V13.01,2013-09-25 21:57:00,
2013-09-25 17:59:00,61.9,52.0,29.20,North,0,0.0,0.0,70,0.00,,---,0.00,VWS V13.01,2013-09-25 21:59:00,
2013-09-25 18:01:00,61.9,52.0,29.20,North,0,0.0,0.0,70,0.00,,---,0.00,VWS V13.01,2013-09-25 22:01:00,
2013-09-25 18:05:00,61.9,52.0,29.20,North,0,0.0,0.0,70,0.00,,---,0.00,VWS V13.01,2013-09-25 22:05:00,
2013-09-25 18:06:00,61.9,52.0,29.20,North,0,0.0,0.0,70,0.00,,---,0.00,VWS V13.01,2013-09-25 22:06:00,
2013-09-25 18:07:00,61.9,52.0,29.20,North,0,0.0,0.0,70,0.00,,---,0.00,VWS V13.01,2013-09-25 22:07:00,
2013-09-25 18:09:00,61.9,52.0,29.20,North,0,0.0,0.0,70,0.00,,---,0.00,VWS V13.01,2013-09-25 22:09:00,
2013-09-25 18:11:00,61.9,52.0,29.20,North,0,0.0,0.0,70,0.00,,---,0.00,VWS V13.01,2013-09-25 22:11:00,
2013-09-25 18:12:00,61.9,52.0,29.20,North,0,0.0,0.0,70,0.00,,---,0.00,VWS V13.01,2013-09-25 22:12:00,
2013-09-25 18:17:00,60.6,51.2,29.20,North,0,0.0,0.0,71,0.00,,---,0.00,VWS V13.01,2013-09-25 22:17:00,
2013-09-25 18:18:00,60.4,51.4,29.20,North,0,0.0,0.0,72,0.00,,---,0.00,VWS V13.01,2013-09-25 22:18:00,
2013-09-25 18:23:00,60.4,51.4,29.20,North,0,0.0,0.0,72,0.00,,---,0.00,VWS V13.01,2013-09-25 22:23:00,
2013-09-25 18:24:00,60.4,51.4,29.20,North,0,0.0,0.0,72,0.00,,---,0.00,VWS V13.01,2013-09-25 22:24:00,
2013-09-25 18:25:00,60.4,51.4,29.20,North,0,0.0,0.0,72,0.00,,---,0.00,VWS V13.01,2013-09-25 22:25:00,
2013-09-25 18:29:00,60.4,51.4,29.20,North,0,0.0,0.0,72,0.00,,---,0.00,VWS V13.01,2013-09-25 22:29:00,
2013-09-25 18:31:00,60.4,51.4,29.20,North,0,0.0,0.0,72,0.00,,---,0.00,VWS V13.01,2013-09-25 22:31:00,
2013-09-25 18:32:00,60.4,51.4,29.20,North,0,0.0,0.0,72,0.00,,---,0.00,VWS V13.01,2013-09-25 22:32:00,
2013-09-25 18:35:00,60.4,51.4,29.20,North,0,0.0,0.0,72,0.00,,---,0.00,VWS V13.01,2013-09-25 22:35:00,
2013-09-25 18:36:00,60.4,51.4,29.20,North,0,0.0,0.0,72,0.00,,---,0.00,VWS V13.01,2013-09-25 22:36:00,
2013-09-25 18:38:00,60.4,51.4,29.20,North,0,0.0,0.0,72,0.00,,---,0.00,VWS V13.01,2013-09-25 22:38:00,
2013-09-25 18:39:00,60.4,51.4,29.20,North,0,0.0,0.0,72,0.00,,---,0.00,VWS V13.01,2013-09-25 22:39:00,
2013-09-25 18:40:00,60.4,51.4,29.20,North,0,0.0,0.0,72,0.00,,---,0.00,VWS V13.01,2013-09-25 22:40:00,
2013-09-25 18:41:00,58.8,50.2,29.20,North,0,0.0,0.0,73,0.00,,---,0.00,VWS V13.01,2013-09-25 22:41:00,
2013-09-25 18:43:00,58.6,50.0,29.20,North,0,0.0,0.0,73,0.00,,---,0.00,VWS V13.01,2013-09-25 22:43:00,
2013-09-25 18:46:00,58.6,50.0,29.20,North,0,0.0,0.0,73,0.00,,---,0.00,VWS V13.01,2013-09-25 22:46:00,
2013-09-25 18:49:00,58.6,50.0,29.20,North,0,0.0,0.0,73,0.00,,---,0.00,VWS V13.01,2013-09-25 22:49:00,
2013-09-25 18:50:00,58.6,50.0,29.20,North,0,0.0,0.0,73,0.00,,---,0.00,VWS V13.01,2013-09-25 22:50:00,
2013-09-25 18:52:00,58.6,50.0,29.20,North,0,0.0,0.0,73,0.00,,---,0.00,VWS V13.01,2013-09-25 22:52:00,
2013-09-25 18:54:00,58.6,50.0,29.20,North,0,0.0,0.0,73,0.00,,---,0.00,VWS V13.01,2013-09-25 22:54:00,
2013-09-25 18:55:00,58.6,50.0,29.20,North,0,0.0,0.0,73,0.00,,---,0.00,VWS V13.01,2013-09-25 22:55:00,
2013-09-25 18:58:00,58.6,50.0,29.20,North,0,0.0,0.0,73,0.00,,---,0.00,VWS V13.01,2013-09-25 22:58:00,
2013-09-25 19:00:00,58.6,50.0,29.20,North,0,0.0,0.0,73,0.00,,---,0.00,VWS V13.01,2013-09-25 23:00:00,
2013-09-25 19:02:00,57.6,49.3,29.20,North,0,0.0,0.0,74,0.00,,---,0.00,VWS V13.01,2013-09-25 23:02:00,
2013-09-25 19:03:00,57.6,49.3,29.20,North,0,0.0,0.0,74,0.00,,---,0.00,VWS V13.01,2013-09-25 23:03:00,
2013-09-25 19:04:00,57.6,49.3,29.20,North,0,0.0,0.0,74,0.00,,---,0.00,VWS V13.01,2013-09-25 23:04:00,
2013-09-25 19:06:00,57.4,49.2,29.20,North,0,0.0,0.0,74,0.00,,---,0.00,VWS V13.01,2013-09-25 23:06:00,
2013-09-25 19:09:00,57.4,49.2,29.20,North,0,0.0,0.0,74,0.00,,---,0.00,VWS V13.01,2013-09-25 23:09:00,
2013-09-25 19:10:00,57.4,49.2,29.20,North,0,0.0,0.0,74,0.00,,---,0.00,VWS V13.01,2013-09-25 23:10:00,
2013-09-25 19:15:00,57.4,49.2,29.20,North,0,0.0,0.0,74,0.00,,---,0.00,VWS V13.01,2013-09-25 23:15:00,
2013-09-25 19:16:00,57.4,49.2,29.20,North,0,0.0,0.0,74,0.00,,---,0.00,VWS V13.01,2013-09-25 23:16:00,
2013-09-25 19:18:00,57.4,49.2,29.20,North,0,0.0,0.0,74,0.00,,---,0.00,VWS V13.01,2013-09-25 23:18:00,
2013-09-25 19:23:00,57.4,49.2,29.20,North,0,0.0,0.0,74,0.00,,---,0.00,VWS V13.01,2013-09-25 23:23:00,
2013-09-25 19:24:00,57.4,49.2,29.20,North,0,0.0,0.0,74,0.00,,---,0.00,VWS V13.01,2013-09-25 23:24:00,
2013-09-25 19:25:00,57.4,49.2,29.20,North,0,0.0,0.0,74,0.00,,---,0.00,VWS V13.01,2013-09-25 23:25:00,
2013-09-25 19:28:00,57.4,49.2,29.20,North,0,0.0,0.0,74,0.00,,---,0.00,VWS V13.01,2013-09-25 23:28:00,
2013-09-25 19:29:00,57.4,49.2,29.20,North,0,0.0,0.0,74,0.00,,---,0.00,VWS V13.01,2013-09-25 23:29:00,
2013-09-25 19:30:00,57.4,49.2,29.20,North,0,0.0,0.0,74,0.00,,---,0.00,VWS V13.01,2013-09-25 23:30:00,
2013-09-25 19:35:00,55.9,49.2,29.20,North,0,0.0,0.0,78,0.00,,---,0.00,VWS V13.01,2013-09-25 23:35:00,
2013-09-25 19:37:00,55.9,49.2,29.20,North,0,0.0,0.0,78,0.00,,---,0.00,VWS V13.01,2013-09-25 23:37:00,
2013-09-25 19:38:00,55.9,49.2,29.20,North,0,0.0,0.0,78,0.00,,---,0.00,VWS V13.01,2013-09-25 23:38:00,
2013-09-25 19:42:00,55.9,49.2,29.20,North,0,0.0,0.0,78,0.00,,---,0.00,VWS V13.01,2013-09-25 23:42:00,
2013-09-25 19:44:00,55.9,49.2,29.20,North,0,0.0,0.0,78,0.00,,---,0.00,VWS V13.01,2013-09-25 23:44:00,
2013-09-25 19:46:00,55.9,49.2,29.20,North,0,0.0,0.0,78,0.00,,---,0.00,VWS V13.01,2013-09-25 23:46:00,
2013-09-25 19:48:00,55.9,49.2,29.20,North,0,0.0,0.0,78,0.00,,---,0.00,VWS V13.01,2013-09-25 23:48:00,
2013-09-25 19:49:00,55.9,49.2,29.20,North,0,0.0,0.0,78,0.00,,---,0.00,VWS V13.01,2013-09-25 23:49:00,
2013-09-25 19:50:00,55.9,49.2,29.20,North,0,0.0,0.0,78,0.00,,---,0.00,VWS V13.01,2013-09-25 23:50:00,
2013-09-25 19:52:00,55.9,49.2,29.20,North,0,0.0,0.0,78,0.00,,---,0.00,VWS V13.01,2013-09-25 23:52:00,
2013-09-25 19:54:00,55.9,49.2,29.20,North,0,0.0,0.0,78,0.00,,---,0.00,VWS V13.01,2013-09-25 23:54:00,
2013-09-25 19:55:00,55.9,49.2,29.20,North,0,0.0,0.0,78,0.00,,---,0.00,VWS V13.01,2013-09-25 23:55:00,
2013-09-25 19:57:00,55.9,49.2,29.20,North,0,0.0,0.0,78,0.00,,---,0.00,VWS V13.01,2013-09-25 23:57:00,
2013-09-25 19:59:00,55.0,49.0,29.20,North,0,0.0,0.0,80,0.00,,---,0.00,VWS V13.01,2013-09-25 23:59:00,
2013-09-25 20:00:00,55.0,49.0,29.20,North,0,0.0,0.0,80,0.00,,---,0.00,VWS V13.01,2013-09-26 00:00:00,
2013-09-25 20:03:00,55.0,49.0,29.20,North,0,0.0,0.0,80,0.00,,---,0.00,VWS V13.01,2013-09-26 00:03:00,
2013-09-25 20:04:00,55.0,49.0,29.20,North,0,0.0,0.0,80,0.00,,---,0.00,VWS V13.01,2013-09-26 00:04:00,
2013-09-25 20:06:00,55.0,49.0,29.20,North,0,0.0,0.0,80,0.00,,---,0.00,VWS V13.01,2013-09-26 00:06:00,
2013-09-25 20:08:00,55.0,49.0,29.20,North,0,0.0,0.0,80,0.00,,---,0.00,VWS V13.01,2013-09-26 00:08:00,
2013-09-25 20:10:00,55.0,49.0,29.20,North,0,0.0,0.0,80,0.00,,---,0.00,VWS V13.01,2013-09-26 00:10:00,
2013-09-25 20:11:00,55.0,49.0,29.20,North,0,0.0,0.0,80,0.00,,---,0.00,VWS V13.01,2013-09-26 00:11:00,
2013-09-25 20:14:00,54.3,48.3,29.20,North,0,0.0,0.0,80,0.00,,---,0.00,VWS V13.01,2013-09-26 00:14:00,
2013-09-25 20:16:00,54.3,48.3,29.20,North,0,0.0,0.0,80,0.00,,---,0.00,VWS V13.01,2013-09-26 00:16:00,
2013-09-25 20:17:00,54.3,48.3,29.20,North,0,0.0,0.0,80,0.00,,---,0.00,VWS V13.01,2013-09-26 00:17:00,
2013-09-25 20:19:00,54.3,48.3,29.20,North,0,0.0,0.0,80,0.00,,---,0.00,VWS V13.01,2013-09-26 00:19:00,
2013-09-25 20:22:00,54.3,48.3,29.20,North,0,0.0,0.0,80,0.00,,---,0.00,VWS V13.01,2013-09-26 00:22:00,
2013-09-25 20:24:00,54.3,48.3,29.20,North,0,0.0,0.0,80,0.00,,---,0.00,VWS V13.01,2013-09-26 00:24:00,
2013-09-25 20:25:00,54.0,48.3,29.20,North,0,0.0,0.0,81,0.00,,---,0.00,VWS V13.01,2013-09-26 00:25:00,
2013-09-25 20:30:00,54.0,48.3,29.20,North,0,0.0,0.0,81,0.00,,---,0.00,VWS V13.01,2013-09-26 00:30:00,
2013-09-25 20:32:00,54.0,48.3,29.23,North,0,0.0,0.0,81,0.00,,---,0.00,VWS V13.01,2013-09-26 00:32:00,
2013-09-25 20:33:00,54.0,48.3,29.23,North,0,0.0,0.0,81,0.00,,---,0.00,VWS V13.01,2013-09-26 00:33:00,
2013-09-25 20:37:00,53.8,48.1,29.23,North,0,0.0,0.0,81,0.00,,---,0.00,VWS V13.01,2013-09-26 00:37:00,
2013-09-25 20:38:00,53.8,48.1,29.23,North,0,0.0,0.0,81,0.00,,---,0.00,VWS V13.01,2013-09-26 00:38:00,
2013-09-25 20:39:00,53.8,48.1,29.23,North,0,0.0,0.0,81,0.00,,---,0.00,VWS V13.01,2013-09-26 00:39:00,
2013-09-25 20:40:00,53.8,48.1,29.23,North,0,0.0,0.0,81,0.00,,---,0.00,VWS V13.01,2013-09-26 00:40:00,
2013-09-25 20:44:00,53.4,47.7,29.23,North,0,0.0,0.0,81,0.00,,---,0.00,VWS V13.01,2013-09-26 00:44:00,
2013-09-25 20:45:00,53.4,47.7,29.23,North,0,0.0,0.0,81,0.00,,---,0.00,VWS V13.01,2013-09-26 00:45:00,
2013-09-25 20:46:00,53.4,47.7,29.23,North,0,0.0,0.0,81,0.00,,---,0.00,VWS V13.01,2013-09-26 00:46:00,
2013-09-25 20:50:00,53.4,47.7,29.23,North,0,0.0,0.0,81,0.00,,---,0.00,VWS V13.01,2013-09-26 00:50:00,
2013-09-25 20:51:00,53.4,47.7,29.23,North,0,0.0,0.0,81,0.00,,---,0.00,VWS V13.01,2013-09-26 00:51:00,
2013-09-25 20:52:00,53.1,47.7,29.23,North,0,0.0,0.0,82,0.00,,---,0.00,VWS V13.01,2013-09-26 00:52:00,
2013-09-25 20:56:00,53.1,47.7,29.23,North,0,0.0,0.0,82,0.00,,---,0.00,VWS V13.01,2013-09-26 00:56:00,
2013-09-25 20:58:00,53.1,47.7,29.23,North,0,0.0,0.0,82,0.00,,---,0.00,VWS V13.01,2013-09-26 00:58:00,
2013-09-25 20:59:00,53.1,47.7,29.23,North,0,0.0,0.0,82,0.00,,---,0.00,VWS V13.01,2013-09-26 00:59:00,
2013-09-25 21:01:00,53.1,47.7,29.23,North,0,0.0,0.0,82,0.00,,---,0.00,VWS V13.01,2013-09-26 01:01:00,
2013-09-25 21:02:00,53.1,47.7,29.23,North,0,0.0,0.0,82,0.00,,---,0.00,VWS V13.01,2013-09-26 01:02:00,
2013-09-25 21:04:00,53.1,47.7,29.23,North,0,0.0,0.0,82,0.00,,---,0.00,VWS V13.01,2013-09-26 01:04:00,
2013-09-25 21:05:00,53.1,47.7,29.23,North,0,0.0,0.0,82,0.00,,---,0.00,VWS V13.01,2013-09-26 01:05:00,
2013-09-25 21:08:00,53.1,47.7,29.23,North,0,0.0,0.0,82,0.00,,---,0.00,VWS V13.01,2013-09-26 01:08:00,
2013-09-25 21:11:00,53.1,47.7,29.23,North,0,0.0,0.0,82,0.00,,---,0.00,VWS V13.01,2013-09-26 01:11:00,
2013-09-25 21:12:00,53.1,47.7,29.23,North,0,0.0,0.0,82,0.00,,---,0.00,VWS V13.01,2013-09-26 01:12:00,
2013-09-25 21:13:00,53.1,47.7,29.23,North,0,0.0,0.0,82,0.00,,---,0.00,VWS V13.01,2013-09-26 01:13:00,
2013-09-25 21:15:00,53.1,47.7,29.23,North,0,0.0,0.0,82,0.00,,---,0.00,VWS V13.01,2013-09-26 01:15:00,
2013-09-25 21:18:00,53.1,47.7,29.23,North,0,0.0,0.0,82,0.00,,---,0.00,VWS V13.01,2013-09-26 01:18:00,
2013-09-25 21:20:00,53.1,47.7,29.23,North,0,0.0,0.0,82,0.00,,---,0.00,VWS V13.01,2013-09-26 01:20:00,
2013-09-25 21:21:00,53.1,47.7,29.23,North,0,0.0,0.0,82,0.00,,---,0.00,VWS V13.01,2013-09-26 01:21:00,
2013-09-25 21:25:00,53.1,47.7,29.23,North,0,0.0,0.0,82,0.00,,---,0.00,VWS V13.01,2013-09-26 01:25:00,
2013-09-25 21:26:00,53.1,47.7,29.23,North,0,0.0,0.0,82,0.00,,---,0.00,VWS V13.01,2013-09-26 01:26:00,
2013-09-25 21:27:00,53.1,47.7,29.23,North,0,0.0,0.0,82,0.00,,---,0.00,VWS V13.01,2013-09-26 01:27:00,
2013-09-25 21:32:00,53.1,47.7,29.23,North,0,0.0,0.0,82,0.00,,---,0.00,VWS V13.01,2013-09-26 01:32:00,
2013-09-25 21:33:00,53.1,47.7,29.23,North,0,0.0,0.0,82,0.00,,---,0.00,VWS V13.01,2013-09-26 01:33:00,
2013-09-25 21:34:00,53.1,47.7,29.23,North,0,0.0,0.0,82,0.00,,---,0.00,VWS V13.01,2013-09-26 01:34:00,
2013-09-25 21:37:00,53.1,47.7,29.23,North,0,0.0,0.0,82,0.00,,---,0.00,VWS V13.01,2013-09-26 01:37:00,
2013-09-25 21:38:00,53.1,47.7,29.23,North,0,0.0,0.0,82,0.00,,---,0.00,VWS V13.01,2013-09-26 01:38:00,
2013-09-25 21:39:00,53.1,47.7,29.23,North,0,0.0,0.0,82,0.00,,---,0.00,VWS V13.01,2013-09-26 01:39:00,
2013-09-25 21:40:00,53.1,47.7,29.23,North,0,0.0,0.0,82,0.00,,---,0.00,VWS V13.01,2013-09-26 01:40:00,
2013-09-25 21:43:00,53.1,47.7,29.23,North,0,0.0,0.0,82,0.00,,---,0.00,VWS V13.01,2013-09-26 01:43:00,
2013-09-25 21:44:00,53.1,47.7,29.23,North,0,0.0,0.0,82,0.00,,---,0.00,VWS V13.01,2013-09-26 01:44:00,
2013-09-25 21:46:00,53.1,47.7,29.23,North,0,0.0,0.0,82,0.00,,---,0.00,VWS V13.01,2013-09-26 01:46:00,
2013-09-25 21:48:00,51.8,46.8,29.23,North,0,0.0,0.0,83,0.00,,---,0.00,VWS V13.01,2013-09-26 01:48:00,
2013-09-25 21:51:00,51.6,46.6,29.23,North,0,0.0,0.0,83,0.00,,---,0.00,VWS V13.01,2013-09-26 01:51:00,
2013-09-25 21:55:00,51.6,46.6,29.23,North,0,0.0,0.0,83,0.00,,---,0.00,VWS V13.01,2013-09-26 01:55:00,
2013-09-25 21:57:00,51.6,46.6,29.23,North,0,0.0,0.0,83,0.00,,---,0.00,VWS V13.01,2013-09-26 01:57:00,
2013-09-25 21:59:00,51.6,46.6,29.23,North,0,0.0,0.0,83,0.00,,---,0.00,VWS V13.01,2013-09-26 01:59:00,
2013-09-25 22:00:00,51.6,46.6,29.23,North,0,0.0,0.0,83,0.00,,---,0.00,VWS V13.01,2013-09-26 02:00:00,
2013-09-25 22:02:00,51.6,46.6,29.23,North,0,0.0,0.0,83,0.00,,---,0.00,VWS V13.01,2013-09-26 02:02:00,
2013-09-25 22:05:00,51.6,46.6,29.23,North,0,0.0,0.0,83,0.00,,---,0.00,VWS V13.01,2013-09-26 02:05:00,
2013-09-25 22:06:00,51.6,46.6,29.23,North,0,0.0,0.0,83,0.00,,---,0.00,VWS V13.01,2013-09-26 02:06:00,
2013-09-25 22:07:00,51.6,46.6,29.23,North,0,0.0,0.0,83,0.00,,---,0.00,VWS V13.01,2013-09-26 02:07:00,
2013-09-25 22:11:00,51.6,46.6,29.23,North,0,0.0,0.0,83,0.00,,---,0.00,VWS V13.01,2013-09-26 02:11:00,
2013-09-25 22:12:00,51.6,46.6,29.23,North,0,0.0,0.0,83,0.00,,---,0.00,VWS V13.01,2013-09-26 02:12:00,
2013-09-25 22:13:00,51.3,46.6,29.23,North,0,0.0,0.0,84,0.00,,---,0.00,VWS V13.01,2013-09-26 02:13:00,
2013-09-25 22:18:00,51.3,46.6,29.23,North,0,0.0,0.0,84,0.00,,---,0.00,VWS V13.01,2013-09-26 02:18:00,
2013-09-25 22:22:00,51.3,46.6,29.23,North,0,0.0,0.0,84,0.00,,---,0.00,VWS V13.01,2013-09-26 02:22:00,
2013-09-25 22:24:00,51.3,46.6,29.23,North,0,0.0,0.0,84,0.00,,---,0.00,VWS V13.01,2013-09-26 02:24:00,
2013-09-25 22:25:00,51.3,46.6,29.23,North,0,0.0,0.0,84,0.00,,---,0.00,VWS V13.01,2013-09-26 02:25:00,
2013-09-25 22:26:00,51.3,46.6,29.23,North,0,0.0,0.0,84,0.00,,---,0.00,VWS V13.01,2013-09-26 02:26:00,
2013-09-25 22:30:00,51.3,46.6,29.23,North,0,0.0,0.0,84,0.00,,---,0.00,VWS V13.01,2013-09-26 02:30:00,
2013-09-25 22:31:00,51.3,46.6,29.23,North,0,0.0,0.0,84,0.00,,---,0.00,VWS V13.01,2013-09-26 02:31:00,
2013-09-25 22:36:00,50.7,46.1,29.23,North,0,0.0,0.0,84,0.00,,---,0.00,VWS V13.01,2013-09-26 02:36:00,
2013-09-25 22:37:00,50.7,46.1,29.23,North,0,0.0,0.0,84,0.00,,---,0.00,VWS V13.01,2013-09-26 02:37:00,
2013-09-25 22:39:00,50.7,46.1,29.23,North,0,0.0,0.0,84,0.00,,---,0.00,VWS V13.01,2013-09-26 02:39:00,
2013-09-25 22:43:00,50.5,45.9,29.23,North,0,0.0,0.0,84,0.00,,---,0.00,VWS V13.01,2013-09-26 02:43:00,
2013-09-25 22:44:00,50.5,45.9,29.23,North,0,0.0,0.0,84,0.00,,---,0.00,VWS V13.01,2013-09-26 02:44:00,
2013-09-25 22:45:00,50.5,45.9,29.23,North,0,0.0,0.0,84,0.00,,---,0.00,VWS V13.01,2013-09-26 02:45:00,
2013-09-25 22:47:00,50.5,45.9,29.23,North,0,0.0,0.0,84,0.00,,---,0.00,VWS V13.01,2013-09-26 02:47:00,
2013-09-25 22:50:00,50.5,45.9,29.23,North,0,0.0,0.0,84,0.00,,---,0.00,VWS V13.01,2013-09-26 02:50:00,
2013-09-25 22:51:00,50.5,45.9,29.26,North,0,0.0,0.0,84,0.00,,---,0.00,VWS V13.01,2013-09-26 02:51:00,
2013-09-25 22:53:00,50.5,45.9,29.26,North,0,0.0,0.0,84,0.00,,---,0.00,VWS V13.01,2013-09-26 02:53:00,
2013-09-25 22:56:00,50.5,45.9,29.26,North,0,0.0,0.0,84,0.00,,---,0.00,VWS V13.01,2013-09-26 02:56:00,
2013-09-25 22:57:00,50.5,45.9,29.26,North,0,0.0,0.0,84,0.00,,---,0.00,VWS V13.01,2013-09-26 02:57:00,
2013-09-25 23:00:00,50.5,45.9,29.26,North,0,0.0,0.0,84,0.00,,---,0.00,VWS V13.01,2013-09-26 03:00:00,
2013-09-25 23:01:00,50.5,45.9,29.26,North,0,0.0,0.0,84,0.00,,---,0.00,VWS V13.01,2013-09-26 03:01:00,
2013-09-25 23:03:00,50.5,45.9,29.26,North,0,0.0,0.0,84,0.00,,---,0.00,VWS V13.01,2013-09-26 03:03:00,
2013-09-25 23:05:00,50.5,45.9,29.26,North,0,0.0,0.0,84,0.00,,---,0.00,VWS V13.01,2013-09-26 03:05:00,
2013-09-25 23:09:00,50.4,45.7,29.26,North,0,0.0,0.0,84,0.00,,---,0.00,VWS V13.01,2013-09-26 03:09:00,
2013-09-25 23:11:00,50.4,45.7,29.26,North,0,0.0,0.0,84,0.00,,---,0.00,VWS V13.01,2013-09-26 03:11:00,
2013-09-25 23:12:00,50.4,45.7,29.26,North,0,0.0,0.0,84,0.00,,---,0.00,VWS V13.01,2013-09-26 03:12:00,
2013-09-25 23:14:00,50.4,45.7,29.26,North,0,0.0,0.0,84,0.00,,---,0.00,VWS V13.01,2013-09-26 03:14:00,
2013-09-25 23:15:00,50.4,45.7,29.26,North,0,0.0,0.0,84,0.00,,---,0.00,VWS V13.01,2013-09-26 03:15:00,
2013-09-25 23:17:00,50.4,45.7,29.26,North,0,0.0,0.0,84,0.00,,---,0.00,VWS V13.01,2013-09-26 03:17:00,
2013-09-25 23:18:00,50.4,45.7,29.26,North,0,0.0,0.0,84,0.00,,---,0.00,VWS V13.01,2013-09-26 03:18:00,
2013-09-25 23:21:00,50.4,45.7,29.26,North,0,0.0,0.0,84,0.00,,---,0.00,VWS V13.01,2013-09-26 03:21:00,
2013-09-25 23:23:00,50.4,45.7,29.26,North,0,0.0,0.0,84,0.00,,---,0.00,VWS V13.01,2013-09-26 03:23:00,
2013-09-25 23:25:00,50.4,45.7,29.26,North,0,0.0,0.0,84,0.00,,---,0.00,VWS V13.01,2013-09-26 03:25:00,
2013-09-25 23:28:00,50.4,45.7,29.26,North,0,0.0,0.0,84,0.00,,---,0.00,VWS V13.01,2013-09-26 03:28:00,
2013-09-25 23:30:00,50.4,45.7,29.26,North,0,0.0,0.0,84,0.00,,---,0.00,VWS V13.01,2013-09-26 03:30:00,
2013-09-25 23:31:00,50.0,45.7,29.26,North,0,0.0,0.0,85,0.00,,---,0.00,VWS V13.01,2013-09-26 03:31:00,
2013-09-25 23:33:00,50.0,45.7,29.26,North,0,0.0,0.0,85,0.00,,---,0.00,VWS V13.01,2013-09-26 03:33:00,
2013-09-25 23:36:00,50.0,45.7,29.26,North,0,0.0,0.0,85,0.00,,---,0.00,VWS V13.01,2013-09-26 03:36:00,
2013-09-25 23:41:00,50.0,45.7,29.26,North,0,0.0,0.0,85,0.00,,---,0.00,VWS V13.01,2013-09-26 03:41:00,
2013-09-25 23:43:00,50.0,45.7,29.26,North,0,0.0,0.0,85,0.00,,---,0.00,VWS V13.01,2013-09-26 03:43:00,
2013-09-25 23:47:00,50.0,45.7,29.26,North,0,0.0,0.0,85,0.00,,---,0.00,VWS V13.01,2013-09-26 03:47:00,
2013-09-25 23:48:00,50.0,45.7,29.26,North,0,0.0,0.0,85,0.00,,---,0.00,VWS V13.01,2013-09-26 03:48:00,
2013-09-25 23:52:00,50.0,45.7,29.26,North,0,0.0,0.0,85,0.00,,---,0.00,VWS V13.01,2013-09-26 03:52:00,
2013-09-25 23:53:00,50.0,45.7,29.26,North,0,0.0,0.0,85,0.00,,---,0.00,VWS V13.01,2013-09-26 03:53:00,
2013-09-25 23:55:00,50.0,45.7,29.26,North,0,0.0,0.0,85,0.00,,---,0.00,VWS V13.01,2013-09-26 03:55:00,
2013-09-25 23:58:00,50.0,45.7,29.26,North,0,0.0,0.0,85,0.00,,---,0.00,VWS V13.01,2013-09-26 03:58:00,
2013-09-25 23:59:00,49.6,45.3,29.26,North,0,0.0,0.0,85,0.00,,---,0.00,VWS V13.01,2013-09-26 03:59:00,